Wetterdaten: Sonntag, 23.06.2013
Datum Zeit Temp. Aussen +5cm Feuchte Auss Luftdruck Regen Sonnenschein Regendauer UV Solar Windben
23.06.2013 00:00 16,7 C 15,1 C 85 % 1010,4 hPa 0,0 l/m 0 min 0 min 0,0 UV-I 0 W/m 7,7 km/h (2 Bft)
23.06.2013 00:02 16,7 C 15,1 C 85 % 1010,4 hPa 0,0 l/m 0 min 0 min 0,0 UV-I 0 W/m 10,3 km/h (2 Bft)
23.06.2013 00:05 16,7 C 15,1 C 85 % 1010,4 hPa 0,0 l/m 0 min 0 min 0,0 UV-I 0 W/m 23,2 km/h (4 Bft)
23.06.2013 00:06 16,7 C 15,1 C 85 % 1010,4 hPa 0,0 l/m 0 min 0 min 0,0 UV-I 0 W/m 0,0 km/h (0 Bft)
23.06.2013 00:08 16,7 C 15,1 C 85 % 1010,4 hPa 0,0 l/m 0 min 0 min 0,0 UV-I 0 W/m 15,4 km/h (3 Bft)
23.06.2013 00:10 16,6 C 15,1 C 85 % 1010,5 hPa 0,0 l/m 0 min 0 min 0,0 UV-I 0 W/m 12,9 km/h (3 Bft)
23.06.2013 00:12 16,6 C 15,1 C 86 % 1010,4 hPa 0,0 l/m 0 min 0 min 0,0 UV-I 0 W/m 12,9 km/h (3 Bft)
23.06.2013 00:14 16,6 C 15,1 C 86 % 1010,4 hPa 0,0 l/m 0 min 0 min 0,0 UV-I 0 W/m 0,0 km/h (0 Bft)
23.06.2013 00:16 16,6 C 15,1 C 86 % 1010,4 hPa 0,0 l/m 0 min 0 min 0,0 UV-I 0 W/m 0,0 km/h (0 Bft)
23.06.2013 00:18 16,6 C 15,1 C 86 % 1010,5 hPa 0,0 l/m 0 min 0 min 0,0 UV-I 0 W/m 12,9 km/h (3 Bft)
23.06.2013 00:20 16,5 C 15,1 C 86 % 1010,3 hPa 0,0 l/m 0 min 0 min 0,0 UV-I 0 W/m 15,4 km/h (3 Bft)
23.06.2013 00:22 16,4 C 15,1 C 86 % 1010,3 hPa 0,0 l/m 0 min 0 min 0,0 UV-I 0 W/m 7,7 km/h (2 Bft)
23.06.2013 00:24 16,4 C 15,1 C 87 % 1010,4 hPa 0,0 l/m 0 min 0 min 0,0 UV-I 0 W/m 5,1 km/h (1 Bft)
23.06.2013 00:26 16,4 C 15,1 C 87 % 1010,6 hPa 0,0 l/m 0 min 0 min 0,0 UV-I 0 W/m 12,9 km/h (3 Bft)
23.06.2013 00:28 16,4 C 15,1 C 87 % 1010,9 hPa 0,0 l/m 0 min 0 min 0,0 UV-I 0 W/m 25,7 km/h (4 Bft)
23.06.2013 00:30 16,3 C 14,0 C 87 % 1010,7 hPa 0,0 l/m 0 min 2 min 0,0 UV-I 0 W/m 18,0 km/h (3 Bft)
23.06.2013 00:32 16,1 C 13,4 C 86 % 1010,8 hPa 0,0 l/m 0 min 2 min 0,0 UV-I 0 W/m 12,9 km/h (3 Bft)
23.06.2013 00:34 15,9 C 12,9 C 86 % 1010,8 hPa 0,2 l/m 0 min 2 min 0,0 UV-I 0 W/m 23,2 km/h (4 Bft)
23.06.2013 00:36 15,7 C 12,3 C 86 % 1010,8 hPa 0,0 l/m 0 min 2 min 0,0 UV-I 0 W/m 15,4 km/h (3 Bft)
23.06.2013 00:38 15,5 C 12,3 C 86 % 1010,8 hPa 0,0 l/m 0 min 2 min 0,0 UV-I 0 W/m 15,4 km/h (3 Bft)
23.06.2013 00:40 15,3 C 12,3 C 87 % 1010,7 hPa 0,0 l/m 0 min 2 min 0,0 UV-I 0 W/m 12,9 km/h (3 Bft)
23.06.2013 00:42 15,1 C 12,3 C 87 % 1010,7 hPa 0,0 l/m 0 min 2 min 0,0 UV-I 0 W/m 10,3 km/h (2 Bft)
23.06.2013 00:44 15,0 C 12,3 C 88 % 1010,7 hPa 0,0 l/m 0 min 2 min 0,0 UV-I 0 W/m 18,0 km/h (3 Bft)
23.06.2013 00:46 14,9 C 12,3 C 88 % 1010,8 hPa 0,0 l/m 0 min 2 min 0,0 UV-I 0 W/m 12,9 km/h (3 Bft)
23.06.2013 00:48 14,8 C 12,3 C 88 % 1010,8 hPa 0,0 l/m 0 min 2 min 0,0 UV-I 0 W/m 12,9 km/h (3 Bft)
23.06.2013 00:50 14,7 C 12,3 C 89 % 1010,8 hPa 0,0 l/m 0 min 2 min 0,0 UV-I 0 W/m 7,7 km/h (2 Bft)
23.06.2013 00:52 14,6 C 12,3 C 89 % 1010,8 hPa 0,0 l/m 0 min 0 min 0,0 UV-I 0 W/m 7,7 km/h (2 Bft)
23.06.2013 00:54 14,5 C 12,3 C 89 % 1010,8 hPa 0,0 l/m 0 min 0 min 0,0 UV-I 0 W/m 7,7 km/h (2 Bft)
23.06.2013 00:56 14,4 C 12,3 C 90 % 1010,8 hPa 0,0 l/m 0 min 0 min 0,0 UV-I 0 W/m 7,7 km/h (2 Bft)
23.06.2013 00:58 14,3 C 12,3 C 90 % 1010,8 hPa 0,0 l/m 0 min 0 min 0,0 UV-I 0 W/m 15,4 km/h (3 Bft)
23.06.2013 01:00 14,2 C 12,3 C 90 % 1010,7 hPa 0,0 l/m 0 min 0 min 0,0 UV-I 0 W/m 10,3 km/h (2 Bft)
23.06.2013 01:02 14,2 C 12,3 C 90 % 1010,7 hPa 0,0 l/m 0 min 0 min 0,0 UV-I 0 W/m 5,1 km/h (1 Bft)
23.06.2013 01:06 14,0 C 12,3 C 91 % 1010,7 hPa 0,0 l/m 0 min 0 min 0,0 UV-I 0 W/m 5,1 km/h (1 Bft)
23.06.2013 01:08 14,0 C 12,3 C 91 % 1010,8 hPa 0,0 l/m 0 min 0 min 0,0 UV-I 0 W/m 12,9 km/h (3 Bft)
23.06.2013 01:10 14,0 C 12,3 C 91 % 1010,8 hPa 0,0 l/m 0 min 0 min 0,0 UV-I 0 W/m 10,3 km/h (2 Bft)
23.06.2013 01:12 14,0 C 12,3 C 91 % 1010,8 hPa 0,0 l/m 0 min 0 min 0,0 UV-I 0 W/m 5,1 km/h (1 Bft)
23.06.2013 01:14 14,0 C 12,3 C 92 % 1010,8 hPa 0,0 l/m 0 min 0 min 0,0 UV-I 0 W/m 7,7 km/h (2 Bft)
23.06.2013 01:16 13,9 C 12,3 C 92 % 1010,8 hPa 0,0 l/m 0 min 2 min 0,0 UV-I 0 W/m 12,9 km/h (3 Bft)
23.06.2013 01:18 13,8 C 12,3 C 92 % 1010,8 hPa 0,0 l/m 0 min 0 min 0,0 UV-I 0 W/m 10,3 km/h (2 Bft)
23.06.2013 01:20 13,8 C 12,3 C 92 % 1010,8 hPa 0,0 l/m 0 min 2 min 0,0 UV-I 0 W/m 10,3 km/h (2 Bft)
23.06.2013 01:22 13,8 C 12,3 C 92 % 1010,8 hPa 0,2 l/m 0 min 2 min 0,0 UV-I 0 W/m 5,1 km/h (1 Bft)
23.06.2013 01:24 13,7 C 12,3 C 92 % 1010,8 hPa 0,0 l/m 0 min 2 min 0,0 UV-I 0 W/m 0,0 km/h (0 Bft)
23.06.2013 01:26 13,7 C 12,3 C 92 % 1010,9 hPa 0,0 l/m 0 min 2 min 0,0 UV-I 0 W/m 12,9 km/h (3 Bft)
23.06.2013 01:28 13,7 C 11,8 C 93 % 1010,8 hPa 0,0 l/m 0 min 2 min 0,0 UV-I 0 W/m 10,3 km/h (2 Bft)
23.06.2013 01:30 13,7 C 12,3 C 93 % 1010,8 hPa 0,0 l/m 0 min 2 min 0,0 UV-I 0 W/m 7,7 km/h (2 Bft)
23.06.2013 01:32 13,6 C 11,8 C 93 % 1010,8 hPa 0,0 l/m 0 min 2 min 0,0 UV-I 0 W/m 2,6 km/h (1 Bft)
23.06.2013 01:34 13,6 C 12,3 C 93 % 1010,8 hPa 0,0 l/m 0 min 2 min 0,0 UV-I 0 W/m 12,9 km/h (3 Bft)
23.06.2013 01:36 13,6 C 11,8 C 93 % 1010,8 hPa 0,0 l/m 0 min 2 min 0,0 UV-I 0 W/m 12,9 km/h (3 Bft)
23.06.2013 01:38 13,5 C 11,8 C 93 % 1010,7 hPa 0,0 l/m 0 min 0 min 0,0 UV-I 0 W/m 18,0 km/h (3 Bft)
23.06.2013 01:40 13,4 C 11,8 C 93 % 1010,7 hPa 0,0 l/m 0 min 0 min 0,0 UV-I 0 W/m 10,3 km/h (2 Bft)
23.06.2013 01:42 13,4 C 11,8 C 93 % 1010,8 hPa 0,0 l/m 0 min 0 min 0,0 UV-I 0 W/m 5,1 km/h (1 Bft)
23.06.2013 01:44 13,4 C 11,8 C 93 % 1010,8 hPa 0,0 l/m 0 min 0 min 0,0 UV-I 0 W/m 7,7 km/h (2 Bft)
23.06.2013 01:46 13,3 C 11,8 C 93 % 1010,8 hPa 0,0 l/m 0 min 0 min 0,0 UV-I 0 W/m 12,9 km/h (3 Bft)
23.06.2013 01:48 13,3 C 11,8 C 93 % 1010,7 hPa 0,0 l/m 0 min 0 min 0,0 UV-I 0 W/m 0,0 km/h (0 Bft)
23.06.2013 01:50 13,3 C 11,8 C 93 % 1010,8 hPa 0,0 l/m 0 min 0 min 0,0 UV-I 0 W/m 2,6 km/h (1 Bft)
23.06.2013 01:52 13,3 C 11,8 C 93 % 1010,8 hPa 0,0 l/m 0 min 2 min 0,0 UV-I 0 W/m 10,3 km/h (2 Bft)
23.06.2013 01:54 13,2 C 11,8 C 93 % 1010,8 hPa 0,0 l/m 0 min 2 min 0,0 UV-I 0 W/m 7,7 km/h (2 Bft)
23.06.2013 01:56 13,2 C 11,8 C 93 % 1010,8 hPa 0,0 l/m 0 min 2 min 0,0 UV-I 0 W/m 0,0 km/h (0 Bft)
23.06.2013 01:58 13,2 C 11,8 C 93 % 1010,7 hPa 0,0 l/m 0 min 2 min 0,0 UV-I 0 W/m 0,0 km/h (0 Bft)
23.06.2013 02:00 13,2 C 11,8 C 94 % 1010,8 hPa 0,0 l/m 0 min 2 min 0,0 UV-I 0 W/m 0,0 km/h (0 Bft)
23.06.2013 02:02 13,2 C 11,8 C 93 % 1010,8 hPa 0,2 l/m 0 min 2 min 0,0 UV-I 0 W/m 0,0 km/h (0 Bft)
23.06.2013 02:06 13,1 C 11,8 C 94 % 1010,6 hPa 0,0 l/m 0 min 2 min 0,0 UV-I 0 W/m 10,3 km/h (2 Bft)
23.06.2013 02:08 13,1 C 11,8 C 94 % 1010,6 hPa 0,0 l/m 0 min 2 min 0,0 UV-I 0 W/m 7,7 km/h (2 Bft)
23.06.2013 02:10 13,1 C 11,8 C 94 % 1010,7 hPa 0,0 l/m 0 min 2 min 0,0 UV-I 0 W/m 7,7 km/h (2 Bft)
23.06.2013 02:12 13,1 C 11,8 C 94 % 1010,6 hPa 0,0 l/m 0 min 0 min 0,0 UV-I 0 W/m 2,6 km/h (1 Bft)
23.06.2013 02:14 13,1 C 11,8 C 94 % 1010,6 hPa 0,0 l/m 0 min 0 min 0,0 UV-I 0 W/m 15,4 km/h (3 Bft)
23.06.2013 02:16 13,0 C 11,8 C 94 % 1010,7 hPa 0,0 l/m 0 min 0 min 0,0 UV-I 0 W/m 7,7 km/h (2 Bft)
23.06.2013 02:18 12,9 C 11,2 C 94 % 1010,6 hPa 0,0 l/m 0 min 2 min 0,0 UV-I 0 W/m 18,0 km/h (3 Bft)
23.06.2013 02:20 12,9 C 11,2 C 94 % 1010,6 hPa 0,0 l/m 0 min 0 min 0,0 UV-I 0 W/m 0,0 km/h (0 Bft)
23.06.2013 02:22 12,9 C 11,2 C 94 % 1010,7 hPa 0,0 l/m 0 min 2 min 0,0 UV-I 0 W/m 7,7 km/h (2 Bft)
23.06.2013 02:24 12,9 C 11,2 C 94 % 1010,6 hPa 0,0 l/m 0 min 2 min 0,0 UV-I 0 W/m 7,7 km/h (2 Bft)
23.06.2013 02:26 12,8 C 11,2 C 94 % 1010,6 hPa 0,0 l/m 0 min 2 min 0,0 UV-I 0 W/m 7,7 km/h (2 Bft)
23.06.2013 02:28 12,8 C 11,2 C 94 % 1010,6 hPa 0,0 l/m 0 min 2 min 0,0 UV-I 0 W/m 10,3 km/h (2 Bft)
23.06.2013 02:30 12,8 C 11,2 C 94 % 1010,6 hPa 0,0 l/m 0 min 0 min 0,0 UV-I 0 W/m 10,3 km/h (2 Bft)
23.06.2013 02:32 12,8 C 11,2 C 94 % 1010,6 hPa 0,0 l/m 0 min 0 min 0,0 UV-I 0 W/m 10,3 km/h (2 Bft)
23.06.2013 02:34 12,7 C 11,2 C 94 % 1010,8 hPa 0,0 l/m 0 min 0 min 0,0 UV-I 0 W/m 2,6 km/h (1 Bft)
23.06.2013 02:36 12,7 C 11,2 C 94 % 1010,7 hPa 0,0 l/m 0 min 0 min 0,0 UV-I 0 W/m 5,1 km/h (1 Bft)
23.06.2013 02:38 12,7 C 11,2 C 94 % 1010,6 hPa 0,0 l/m 0 min 0 min 0,0 UV-I 0 W/m 7,7 km/h (2 Bft)
23.06.2013 02:40 12,7 C 11,2 C 94 % 1010,6 hPa 0,0 l/m 0 min 2 min 0,0 UV-I 0 W/m 7,7 km/h (2 Bft)
23.06.2013 02:42 12,7 C 11,2 C 94 % 1010,6 hPa 0,0 l/m 0 min 2 min 0,0 UV-I 0 W/m 10,3 km/h (2 Bft)
23.06.2013 02:44 12,6 C 11,2 C 94 % 1010,6 hPa 0,0 l/m 0 min 2 min 0,0 UV-I 0 W/m 5,1 km/h (1 Bft)
23.06.2013 02:46 12,6 C 11,2 C 94 % 1010,6 hPa 0,0 l/m 0 min 2 min 0,0 UV-I 0 W/m 2,6 km/h (1 Bft)
23.06.2013 02:48 12,6 C 11,2 C 94 % 1010,5 hPa 0,0 l/m 0 min 2 min 0,0 UV-I 0 W/m 0,0 km/h (0 Bft)
23.06.2013 02:50 12,6 C 11,2 C 94 % 1010,6 hPa 0,0 l/m 0 min 2 min 0,0 UV-I 0 W/m 0,0 km/h (0 Bft)
23.06.2013 02:52 12,6 C 11,2 C 94 % 1010,5 hPa 0,0 l/m 0 min 0 min 0,0 UV-I 0 W/m 10,3 km/h (2 Bft)
23.06.2013 02:54 12,5 C 11,2 C 94 % 1010,4 hPa 0,0 l/m 0 min 0 min 0,0 UV-I 0 W/m 10,3 km/h (2 Bft)
23.06.2013 02:56 12,5 C 11,2 C 94 % 1010,4 hPa 0,0 l/m 0 min 0 min 0,0 UV-I 0 W/m 0,0 km/h (0 Bft)
23.06.2013 02:58 12,5 C 11,2 C 94 % 1010,4 hPa 0,0 l/m 0 min 2 min 0,0 UV-I 0 W/m 7,7 km/h (2 Bft)
23.06.2013 03:00 12,4 C 11,2 C 94 % 1010,4 hPa 0,0 l/m 0 min 0 min 0,0 UV-I 0 W/m 10,3 km/h (2 Bft)
23.06.2013 03:02 12,4 C 11,2 C 95 % 1010,4 hPa 0,0 l/m 0 min 0 min 0,0 UV-I 0 W/m 7,7 km/h (2 Bft)
23.06.2013 03:05 12,4 C 11,2 C 95 % 1010,4 hPa 0,0 l/m 0 min 0 min 0,0 UV-I 0 W/m 7,7 km/h (2 Bft)
23.06.2013 03:06 12,4 C 11,2 C 95 % 1010,4 hPa 0,0 l/m 0 min 0 min 0,0 UV-I 0 W/m 2,6 km/h (1 Bft)
23.06.2013 03:08 12,4 C 11,2 C 95 % 1010,4 hPa 0,0 l/m 0 min 0 min 0,0 UV-I 0 W/m 7,7 km/h (2 Bft)
23.06.2013 03:10 12,4 C 11,2 C 95 % 1010,4 hPa 0,0 l/m 0 min 0 min 0,0 UV-I 0 W/m 15,4 km/h (3 Bft)
23.06.2013 03:12 12,3 C 11,2 C 95 % 1010,3 hPa 0,0 l/m 0 min 2 min 0,0 UV-I 0 W/m 10,3 km/h (2 Bft)
23.06.2013 03:14 12,3 C 11,2 C 95 % 1010,3 hPa 0,0 l/m 0 min 2 min 0,0 UV-I 0 W/m 0,0 km/h (0 Bft)
23.06.2013 03:16 12,3 C 11,2 C 95 % 1010,4 hPa 0,0 l/m 0 min 0 min 0,0 UV-I 0 W/m 5,1 km/h (1 Bft)
23.06.2013 03:18 12,3 C 11,2 C 95 % 1010,4 hPa 0,0 l/m 0 min 0 min 0,0 UV-I 0 W/m 10,3 km/h (2 Bft)
23.06.2013 03:20 12,3 C 11,2 C 95 % 1010,5 hPa 0,0 l/m 0 min 0 min 0,0 UV-I 0 W/m 0,0 km/h (0 Bft)
23.06.2013 03:22 12,3 C 11,2 C 95 % 1010,4 hPa 0,0 l/m 0 min 0 min 0,0 UV-I 0 W/m 0,0 km/h (0 Bft)
23.06.2013 03:24 12,3 C 11,2 C 95 % 1010,4 hPa 0,0 l/m 0 min 2 min 0,0 UV-I 0 W/m 7,7 km/h (2 Bft)
23.06.2013 03:26 12,3 C 11,2 C 95 % 1010,3 hPa 0,0 l/m 0 min 0 min 0,0 UV-I 0 W/m 7,7 km/h (2 Bft)
23.06.2013 03:28 12,3 C 11,2 C 95 % 1010,3 hPa 0,0 l/m 0 min 2 min 0,0 UV-I 0 W/m 5,1 km/h (1 Bft)
23.06.2013 03:30 12,3 C 11,2 C 95 % 1010,3 hPa 0,0 l/m 0 min 2 min 0,0 UV-I 0 W/m 2,6 km/h (1 Bft)
23.06.2013 03:32 12,3 C 11,2 C 95 % 1010,2 hPa 0,0 l/m 0 min 2 min 0,0 UV-I 0 W/m 7,7 km/h (2 Bft)
23.06.2013 03:34 12,3 C 11,2 C 95 % 1010,2 hPa 0,2 l/m 0 min 2 min 0,0 UV-I 0 W/m 2,6 km/h (1 Bft)
23.06.2013 03:36 12,3 C 11,2 C 95 % 1010,3 hPa 0,0 l/m 0 min 0 min 0,0 UV-I 0 W/m 10,3 km/h (2 Bft)
23.06.2013 03:38 12,3 C 11,2 C 95 % 1010,3 hPa 0,0 l/m 0 min 0 min 0,0 UV-I 0 W/m 12,9 km/h (3 Bft)
23.06.2013 03:40 12,3 C 11,2 C 95 % 1010,3 hPa 0,0 l/m 0 min 0 min 0,0 UV-I 0 W/m 15,4 km/h (3 Bft)
23.06.2013 03:42 12,3 C 11,2 C 95 % 1010,2 hPa 0,0 l/m 0 min 0 min 0,0 UV-I 0 W/m 0,0 km/h (0 Bft)
23.06.2013 03:44 12,3 C 11,2 C 95 % 1010,2 hPa 0,0 l/m 0 min 0 min 0,0 UV-I 0 W/m 5,1 km/h (1 Bft)
23.06.2013 03:46 12,3 C 11,2 C 95 % 1010,1 hPa 0,0 l/m 0 min 0 min 0,0 UV-I 0 W/m 5,1 km/h (1 Bft)
23.06.2013 03:48 12,3 C 11,2 C 95 % 1010,1 hPa 0,0 l/m 0 min 0 min 0,0 UV-I 0 W/m 0,0 km/h (0 Bft)
23.06.2013 03:50 12,3 C 11,2 C 95 % 1010,1 hPa 0,0 l/m 0 min 0 min 0,0 UV-I 0 W/m 5,1 km/h (1 Bft)
23.06.2013 03:52 12,3 C 11,2 C 95 % 1010,1 hPa 0,0 l/m 0 min 0 min 0,0 UV-I 0 W/m 7,7 km/h (2 Bft)
23.06.2013 03:54 12,3 C 11,2 C 95 % 1010,2 hPa 0,0 l/m 0 min 0 min 0,0 UV-I 0 W/m 5,1 km/h (1 Bft)
23.06.2013 03:56 12,3 C 11,2 C 95 % 1010,2 hPa 0,0 l/m 0 min 0 min 0,0 UV-I 0 W/m 2,6 km/h (1 Bft)
23.06.2013 03:58 12,3 C 11,2 C 95 % 1010,2 hPa 0,0 l/m 0 min 0 min 0,0 UV-I 0 W/m 7,7 km/h (2 Bft)
23.06.2013 04:00 12,3 C 11,2 C 96 % 1010,2 hPa 0,0 l/m 0 min 0 min 0,0 UV-I 0 W/m 2,6 km/h (1 Bft)
23.06.2013 04:02 12,3 C 11,2 C 96 % 1010,2 hPa 0,0 l/m 0 min 0 min 0,0 UV-I 0 W/m 10,3 km/h (2 Bft)
23.06.2013 04:06 12,3 C 11,2 C 96 % 1010,2 hPa 0,0 l/m 0 min 0 min 0,0 UV-I 0 W/m 12,9 km/h (3 Bft)
23.06.2013 04:08 12,3 C 11,2 C 96 % 1010,2 hPa 0,0 l/m 0 min 0 min 0,0 UV-I 0 W/m 18,0 km/h (3 Bft)
23.06.2013 04:10 12,3 C 11,2 C 96 % 1010,2 hPa 0,0 l/m 0 min 2 min 0,0 UV-I 0 W/m 15,4 km/h (3 Bft)
23.06.2013 04:12 12,3 C 11,2 C 96 % 1010,1 hPa 0,0 l/m 0 min 2 min 0,0 UV-I 0 W/m 5,1 km/h (1 Bft)
23.06.2013 04:14 12,3 C 11,2 C 96 % 1010,1 hPa 0,0 l/m 0 min 0 min 0,0 UV-I 0 W/m 5,1 km/h (1 Bft)
23.06.2013 04:16 12,3 C 11,2 C 96 % 1010,1 hPa 0,0 l/m 0 min 0 min 0,0 UV-I 0 W/m 2,6 km/h (1 Bft)
23.06.2013 04:18 12,3 C 11,2 C 96 % 1010,2 hPa 0,0 l/m 0 min 0 min 0,0 UV-I 0 W/m 7,7 km/h (2 Bft)
23.06.2013 04:20 12,3 C 11,2 C 96 % 1010,2 hPa 0,0 l/m 0 min 0 min 0,0 UV-I 0 W/m 0,0 km/h (0 Bft)
23.06.2013 04:22 12,3 C 11,2 C 96 % 1010,2 hPa 0,0 l/m 0 min 0 min 0,0 UV-I 0 W/m 10,3 km/h (2 Bft)
23.06.2013 04:24 12,3 C 11,2 C 96 % 1010,1 hPa 0,0 l/m 0 min 0 min 0,0 UV-I 0 W/m 7,7 km/h (2 Bft)
23.06.2013 04:26 12,3 C 11,2 C 96 % 1010,1 hPa 0,0 l/m 0 min 0 min 0,0 UV-I 0 W/m 7,7 km/h (2 Bft)
23.06.2013 04:28 12,3 C 11,2 C 96 % 1010,1 hPa 0,0 l/m 0 min 0 min 0,0 UV-I 0 W/m 5,1 km/h (1 Bft)
23.06.2013 04:30 12,3 C 11,2 C 96 % 1010,1 hPa 0,0 l/m 0 min 0 min 0,0 UV-I 0 W/m 10,3 km/h (2 Bft)
23.06.2013 04:32 12,3 C 11,2 C 96 % 1010,1 hPa 0,0 l/m 0 min 0 min 0,0 UV-I 0 W/m 12,9 km/h (3 Bft)
23.06.2013 04:34 12,3 C 11,2 C 96 % 1010,0 hPa 0,0 l/m 0 min 0 min 0,0 UV-I 0 W/m 12,9 km/h (3 Bft)
23.06.2013 04:36 12,3 C 11,2 C 96 % 1010,1 hPa 0,0 l/m 0 min 0 min 0,0 UV-I 0 W/m 10,3 km/h (2 Bft)
23.06.2013 04:38 12,3 C 11,2 C 96 % 1010,0 hPa 0,0 l/m 0 min 0 min 0,0 UV-I 0 W/m 10,3 km/h (2 Bft)
23.06.2013 04:40 12,3 C 11,2 C 96 % 1009,9 hPa 0,0 l/m 0 min 0 min 0,0 UV-I 0 W/m 7,7 km/h (2 Bft)
23.06.2013 04:42 12,3 C 11,2 C 96 % 1010,0 hPa 0,0 l/m 0 min 0 min 0,0 UV-I 0 W/m 5,1 km/h (1 Bft)
23.06.2013 04:44 12,3 C 11,2 C 96 % 1010,0 hPa 0,0 l/m 0 min 0 min 0,0 UV-I 0 W/m 15,4 km/h (3 Bft)
23.06.2013 04:46 12,3 C 11,2 C 96 % 1010,1 hPa 0,0 l/m 0 min 0 min 0,0 UV-I 0 W/m 7,7 km/h (2 Bft)
23.06.2013 04:48 12,4 C 11,2 C 96 % 1010,1 hPa 0,0 l/m 0 min 0 min 0,0 UV-I 0 W/m 10,3 km/h (2 Bft)
23.06.2013 04:50 12,4 C 11,2 C 96 % 1010,1 hPa 0,0 l/m 0 min 0 min 0,0 UV-I 0 W/m 12,9 km/h (3 Bft)
23.06.2013 04:52 12,4 C 11,2 C 96 % 1010,1 hPa 0,0 l/m 0 min 0 min 0,0 UV-I 0 W/m 7,7 km/h (2 Bft)
23.06.2013 04:54 12,4 C 11,2 C 96 % 1010,1 hPa 0,0 l/m 0 min 0 min 0,0 UV-I 0 W/m 7,7 km/h (2 Bft)
23.06.2013 04:56 12,4 C 11,2 C 96 % 1010,1 hPa 0,0 l/m 0 min 0 min 0,0 UV-I 0 W/m 12,9 km/h (3 Bft)
23.06.2013 04:58 12,4 C 11,2 C 96 % 1010,1 hPa 0,0 l/m 0 min 0 min 0,0 UV-I 0 W/m 2,6 km/h (1 Bft)
23.06.2013 05:00 12,4 C 11,2 C 96 % 1010,1 hPa 0,0 l/m 0 min 0 min 0,0 UV-I 0 W/m 25,7 km/h (4 Bft)
23.06.2013 05:02 12,4 C 11,2 C 96 % 1010,1 hPa 0,0 l/m 0 min 0 min 0,0 UV-I 0 W/m 18,0 km/h (3 Bft)
23.06.2013 05:06 12,5 C 11,2 C 96 % 1010,2 hPa 0,0 l/m 0 min 0 min 0,0 UV-I 0 W/m 7,7 km/h (2 Bft)
23.06.2013 05:08 12,5 C 11,2 C 96 % 1010,2 hPa 0,0 l/m 0 min 0 min 0,0 UV-I 0 W/m 15,4 km/h (3 Bft)
23.06.2013 05:10 12,5 C 11,2 C 96 % 1010,2 hPa 0,0 l/m 0 min 0 min 0,0 UV-I 0 W/m 18,0 km/h (3 Bft)
23.06.2013 05:12 12,5 C 11,2 C 96 % 1010,1 hPa 0,0 l/m 0 min 0 min 0,0 UV-I 0 W/m 10,3 km/h (2 Bft)
23.06.2013 05:14 12,5 C 11,2 C 96 % 1010,0 hPa 0,0 l/m 0 min 0 min 0,0 UV-I 0 W/m 5,1 km/h (1 Bft)
23.06.2013 05:16 12,5 C 11,2 C 96 % 1010,0 hPa 0,0 l/m 0 min 0 min 0,0 UV-I 0 W/m 7,7 km/h (2 Bft)
23.06.2013 05:18 12,5 C 11,2 C 96 % 1010,0 hPa 0,0 l/m 0 min 0 min 0,0 UV-I 0 W/m 5,1 km/h (1 Bft)
23.06.2013 05:20 12,6 C 11,2 C 96 % 1010,0 hPa 0,0 l/m 0 min 0 min 0,0 UV-I 0 W/m 7,7 km/h (2 Bft)
23.06.2013 05:22 12,6 C 11,2 C 96 % 1010,1 hPa 0,0 l/m 0 min 0 min 0,0 UV-I 0 W/m 7,7 km/h (2 Bft)
23.06.2013 05:24 12,6 C 11,2 C 96 % 1010,1 hPa 0,0 l/m 0 min 0 min 0,0 UV-I 0 W/m 20,6 km/h (4 Bft)
23.06.2013 05:26 12,6 C 11,2 C 95 % 1010,1 hPa 0,0 l/m 0 min 0 min 0,0 UV-I 0 W/m 15,4 km/h (3 Bft)
23.06.2013 05:28 12,6 C 11,2 C 95 % 1010,1 hPa 0,0 l/m 0 min 0 min 0,0 UV-I 0 W/m 7,7 km/h (2 Bft)
23.06.2013 05:30 12,6 C 11,8 C 95 % 1010,1 hPa 0,0 l/m 0 min 0 min 0,0 UV-I 0 W/m 5,1 km/h (1 Bft)
23.06.2013 05:32 12,6 C 11,8 C 95 % 1010,1 hPa 0,0 l/m 0 min 0 min 0,0 UV-I 0 W/m 7,7 km/h (2 Bft)
23.06.2013 05:34 12,6 C 11,8 C 95 % 1010,1 hPa 0,0 l/m 0 min 0 min 0,0 UV-I 0 W/m 12,9 km/h (3 Bft)
23.06.2013 05:36 12,6 C 11,8 C 95 % 1010,1 hPa 0,0 l/m 0 min 2 min 0,0 UV-I 5 W/m 12,9 km/h (3 Bft)
23.06.2013 05:38 12,6 C 11,8 C 95 % 1010,2 hPa 0,0 l/m 0 min 0 min 0,0 UV-I 5 W/m 12,9 km/h (3 Bft)
23.06.2013 05:40 12,7 C 11,8 C 95 % 1010,2 hPa 0,0 l/m 0 min 0 min 0,0 UV-I 5 W/m 20,6 km/h (4 Bft)
23.06.2013 05:42 12,7 C 11,8 C 95 % 1010,1 hPa 0,0 l/m 0 min 0 min 0,0 UV-I 7 W/m 12,9 km/h (3 Bft)
23.06.2013 05:44 12,7 C 11,8 C 95 % 1010,1 hPa 0,0 l/m 0 min 0 min 0,0 UV-I 7 W/m 7,7 km/h (2 Bft)
23.06.2013 05:46 12,7 C 11,8 C 95 % 1010,2 hPa 0,0 l/m 0 min 0 min 0,0 UV-I 7 W/m 12,9 km/h (3 Bft)
23.06.2013 05:48 12,7 C 11,8 C 95 % 1010,2 hPa 0,0 l/m 0 min 0 min 0,0 UV-I 9 W/m 15,4 km/h (3 Bft)
23.06.2013 05:50 12,7 C 11,8 C 95 % 1010,1 hPa 0,0 l/m 0 min 0 min 0,0 UV-I 9 W/m 18,0 km/h (3 Bft)
23.06.2013 05:52 12,7 C 11,8 C 95 % 1010,1 hPa 0,0 l/m 0 min 0 min 0,0 UV-I 11 W/m 12,9 km/h (3 Bft)
23.06.2013 05:54 12,7 C 11,8 C 95 % 1010,1 hPa 0,0 l/m 0 min 2 min 0,0 UV-I 12 W/m 12,9 km/h (3 Bft)
23.06.2013 05:56 12,7 C 11,8 C 95 % 1010,2 hPa 0,0 l/m 0 min 2 min 0,0 UV-I 12 W/m 7,7 km/h (2 Bft)
23.06.2013 05:58 12,7 C 11,8 C 95 % 1010,2 hPa 0,0 l/m 0 min 0 min 0,0 UV-I 12 W/m 7,7 km/h (2 Bft)
23.06.2013 06:00 12,7 C 11,8 C 95 % 1010,2 hPa 0,0 l/m 0 min 0 min 0,0 UV-I 14 W/m 12,9 km/h (3 Bft)
23.06.2013 06:02 12,8 C 11,8 C 95 % 1010,2 hPa 0,0 l/m 0 min 0 min 0,0 UV-I 14 W/m 10,3 km/h (2 Bft)
23.06.2013 06:06 12,8 C 11,8 C 95 % 1010,1 hPa 0,0 l/m 0 min 0 min 0,0 UV-I 14 W/m 15,4 km/h (3 Bft)
23.06.2013 06:08 12,8 C 11,8 C 95 % 1010,1 hPa 0,0 l/m 0 min 0 min 0,0 UV-I 16 W/m 15,4 km/h (3 Bft)
23.06.2013 06:10 12,8 C 11,8 C 94 % 1010,1 hPa 0,0 l/m 0 min 0 min 0,0 UV-I 18 W/m 7,7 km/h (2 Bft)
23.06.2013 06:12 12,8 C 11,8 C 94 % 1010,1 hPa 0,0 l/m 0 min 2 min 0,0 UV-I 26 W/m 10,3 km/h (2 Bft)
23.06.2013 06:14 12,8 C 11,8 C 94 % 1010,1 hPa 0,0 l/m 0 min 0 min 0,0 UV-I 30 W/m 10,3 km/h (2 Bft)
23.06.2013 06:16 12,8 C 11,8 C 94 % 1010,1 hPa 0,0 l/m 0 min 0 min 0,0 UV-I 40 W/m 7,7 km/h (2 Bft)
23.06.2013 06:18 12,8 C 11,8 C 94 % 1010,1 hPa 0,0 l/m 0 min 0 min 0,0 UV-I 40 W/m 18,0 km/h (3 Bft)
23.06.2013 06:20 12,9 C 11,8 C 94 % 1010,1 hPa 0,0 l/m 0 min 2 min 0,0 UV-I 28 W/m 5,1 km/h (1 Bft)
23.06.2013 06:22 12,9 C 11,8 C 94 % 1010,0 hPa 0,0 l/m 0 min 2 min 0,0 UV-I 25 W/m 10,3 km/h (2 Bft)
23.06.2013 06:24 12,9 C 11,8 C 94 % 1010,1 hPa 0,0 l/m 0 min 0 min 0,0 UV-I 26 W/m 12,9 km/h (3 Bft)
23.06.2013 06:26 12,9 C 11,8 C 94 % 1010,1 hPa 0,0 l/m 0 min 0 min 0,0 UV-I 32 W/m 10,3 km/h (2 Bft)
23.06.2013 06:28 12,9 C 11,8 C 94 % 1010,1 hPa 0,0 l/m 0 min 0 min 0,0 UV-I 46 W/m 2,6 km/h (1 Bft)
23.06.2013 06:30 12,9 C 11,8 C 94 % 1010,1 hPa 0,0 l/m 0 min 2 min 0,0 UV-I 33 W/m 0,0 km/h (0 Bft)
23.06.2013 06:32 12,9 C 11,8 C 94 % 1010,1 hPa 0,0 l/m 0 min 2 min 0,0 UV-I 28 W/m 2,6 km/h (1 Bft)
23.06.2013 06:34 12,9 C 11,8 C 94 % 1010,2 hPa 0,0 l/m 0 min 2 min 0,0 UV-I 37 W/m 10,3 km/h (2 Bft)
23.06.2013 06:36 12,9 C 11,8 C 94 % 1010,2 hPa 0,0 l/m 0 min 0 min 0,0 UV-I 30 W/m 10,3 km/h (2 Bft)
23.06.2013 06:38 12,9 C 11,8 C 94 % 1010,2 hPa 0,0 l/m 0 min 2 min 0,0 UV-I 30 W/m 18,0 km/h (3 Bft)
23.06.2013 06:40 12,9 C 11,8 C 94 % 1010,1 hPa 0,0 l/m 0 min 2 min 0,0 UV-I 33 W/m 12,9 km/h (3 Bft)
23.06.2013 06:42 12,9 C 11,8 C 94 % 1010,1 hPa 0,0 l/m 0 min 2 min 0,0 UV-I 33 W/m 18,0 km/h (3 Bft)
23.06.2013 06:44 12,9 C 11,8 C 94 % 1010,1 hPa 0,0 l/m 0 min 2 min 0,0 UV-I 33 W/m 28,3 km/h (4 Bft)
23.06.2013 06:46 12,9 C 11,8 C 94 % 1010,2 hPa 0,0 l/m 0 min 2 min 0,0 UV-I 30 W/m 25,7 km/h (4 Bft)
23.06.2013 06:48 12,9 C 11,8 C 94 % 1010,2 hPa 0,0 l/m 0 min 2 min 0,0 UV-I 30 W/m 7,7 km/h (2 Bft)
23.06.2013 06:50 12,9 C 11,8 C 94 % 1010,2 hPa 0,0 l/m 0 min 2 min 0,0 UV-I 32 W/m 7,7 km/h (2 Bft)
23.06.2013 06:52 12,9 C 11,8 C 94 % 1010,1 hPa 0,0 l/m 0 min 2 min 0,0 UV-I 37 W/m 7,7 km/h (2 Bft)
23.06.2013 06:54 13,0 C 11,8 C 94 % 1010,1 hPa 0,0 l/m 0 min 2 min 0,0 UV-I 40 W/m 7,7 km/h (2 Bft)
23.06.2013 06:56 13,0 C 11,8 C 94 % 1010,1 hPa 0,0 l/m 0 min 2 min 0,0 UV-I 54 W/m 12,9 km/h (3 Bft)
23.06.2013 06:58 13,0 C 11,8 C 94 % 1010,1 hPa 0,0 l/m 0 min 2 min 0,0 UV-I 69 W/m 10,3 km/h (2 Bft)
23.06.2013 07:00 13,0 C 11,8 C 94 % 1010,1 hPa 0,0 l/m 0 min 2 min 0,0 UV-I 63 W/m 5,1 km/h (1 Bft)
23.06.2013 07:02 13,0 C 11,8 C 94 % 1010,1 hPa 0,0 l/m 0 min 2 min 0,0 UV-I 44 W/m 10,3 km/h (2 Bft)
23.06.2013 07:06 13,0 C 11,2 C 94 % 1010,2 hPa 0,2 l/m 0 min 2 min 0,0 UV-I 40 W/m 15,4 km/h (3 Bft)
23.06.2013 07:08 12,9 C 11,2 C 94 % 1010,2 hPa 0,0 l/m 0 min 2 min 0,0 UV-I 47 W/m 15,4 km/h (3 Bft)
23.06.2013 07:10 12,9 C 11,2 C 94 % 1010,3 hPa 0,0 l/m 0 min 2 min 0,0 UV-I 60 W/m 18,0 km/h (3 Bft)
23.06.2013 07:12 12,9 C 11,2 C 94 % 1010,3 hPa 0,0 l/m 0 min 2 min 0,0 UV-I 56 W/m 12,9 km/h (3 Bft)
23.06.2013 07:14 12,9 C 11,2 C 94 % 1010,2 hPa 0,0 l/m 0 min 2 min 0,0 UV-I 56 W/m 18,0 km/h (3 Bft)
23.06.2013 07:16 12,9 C 11,2 C 94 % 1010,3 hPa 0,0 l/m 0 min 2 min 0,0 UV-I 42 W/m 10,3 km/h (2 Bft)
23.06.2013 07:18 12,9 C 11,2 C 94 % 1010,3 hPa 0,0 l/m 0 min 0 min 0,0 UV-I 37 W/m 7,7 km/h (2 Bft)
23.06.2013 07:20 12,9 C 11,2 C 94 % 1010,3 hPa 0,0 l/m 0 min 0 min 0,0 UV-I 42 W/m 15,4 km/h (3 Bft)
23.06.2013 07:22 12,9 C 11,2 C 94 % 1010,2 hPa 0,0 l/m 0 min 2 min 0,0 UV-I 39 W/m 18,0 km/h (3 Bft)
23.06.2013 07:24 12,8 C 11,2 C 94 % 1010,1 hPa 0,0 l/m 0 min 2 min 0,0 UV-I 40 W/m 12,9 km/h (3 Bft)
23.06.2013 07:26 12,8 C 11,2 C 94 % 1010,1 hPa 0,0 l/m 0 min 0 min 0,0 UV-I 46 W/m 20,6 km/h (4 Bft)
23.06.2013 07:28 12,8 C 11,2 C 96 % 1010,1 hPa 0,0 l/m 0 min 0 min 0,0 UV-I 47 W/m 7,7 km/h (2 Bft)
23.06.2013 07:30 12,8 C 11,2 C 94 % 1010,0 hPa 0,0 l/m 0 min 0 min 0,0 UV-I 44 W/m 12,9 km/h (3 Bft)
23.06.2013 07:32 12,8 C 11,2 C 94 % 1010,0 hPa 0,0 l/m 0 min 0 min 0,0 UV-I 46 W/m 7,7 km/h (2 Bft)
23.06.2013 07:34 12,8 C 11,8 C 94 % 1010,1 hPa 0,0 l/m 0 min 0 min 0,0 UV-I 93 W/m 2,6 km/h (1 Bft)
23.06.2013 07:36 12,9 C 11,8 C 94 % 1010,1 hPa 0,0 l/m 0 min 0 min 0,0 UV-I 128 W/m 7,7 km/h (2 Bft)
23.06.2013 07:38 12,9 C 11,8 C 94 % 1010,1 hPa 0,0 l/m 0 min 0 min 0,0 UV-I 109 W/m 20,6 km/h (4 Bft)
23.06.2013 07:40 12,9 C 11,8 C 94 % 1010,0 hPa 0,0 l/m 0 min 0 min 0,0 UV-I 88 W/m 12,9 km/h (3 Bft)
23.06.2013 07:42 12,9 C 11,8 C 94 % 1010,0 hPa 0,0 l/m 0 min 0 min 0,0 UV-I 95 W/m 10,3 km/h (2 Bft)
23.06.2013 07:44 12,9 C 11,8 C 94 % 1010,1 hPa 0,0 l/m 0 min 0 min 0,0 UV-I 109 W/m 10,3 km/h (2 Bft)
23.06.2013 07:46 13,0 C 12,3 C 93 % 1010,1 hPa 0,0 l/m 0 min 0 min 0,0 UV-I 169 W/m 10,3 km/h (2 Bft)
23.06.2013 07:48 13,1 C 12,3 C 93 % 1010,2 hPa 0,0 l/m 0 min 0 min 0,0 UV-I 111 W/m 20,6 km/h (4 Bft)
23.06.2013 07:50 13,1 C 12,3 C 93 % 1010,2 hPa 0,0 l/m 0 min 2 min 0,0 UV-I 77 W/m 20,6 km/h (4 Bft)
23.06.2013 07:52 13,1 C 12,3 C 93 % 1010,1 hPa 0,0 l/m 0 min 0 min 0,0 UV-I 91 W/m 18,0 km/h (3 Bft)
23.06.2013 07:54 13,2 C 12,3 C 93 % 1010,1 hPa 0,0 l/m 0 min 0 min 0,0 UV-I 125 W/m 12,9 km/h (3 Bft)
23.06.2013 07:56 13,2 C 12,9 C 93 % 1010,1 hPa 0,0 l/m 0 min 2 min 0,0 UV-I 104 W/m 15,4 km/h (3 Bft)
23.06.2013 07:58 13,2 C 12,9 C 93 % 1010,1 hPa 0,0 l/m 0 min 0 min 0,0 UV-I 98 W/m 12,9 km/h (3 Bft)
23.06.2013 08:00 13,3 C 12,9 C 92 % 1010,2 hPa 0,0 l/m 0 min 0 min 0,0 UV-I 118 W/m 12,9 km/h (3 Bft)
23.06.2013 08:02 13,3 C 12,9 C 92 % 1010,2 hPa 0,0 l/m 0 min 0 min 0,0 UV-I 104 W/m 12,9 km/h (3 Bft)
23.06.2013 08:06 13,4 C 12,9 C 92 % 1010,2 hPa 0,0 l/m 0 min 0 min 0,0 UV-I 127 W/m 15,4 km/h (3 Bft)
23.06.2013 08:08 13,4 C 12,9 C 92 % 1010,3 hPa 0,0 l/m 0 min 0 min 0,0 UV-I 114 W/m 12,9 km/h (3 Bft)
23.06.2013 08:10 13,4 C 12,9 C 91 % 1010,1 hPa 0,0 l/m 0 min 0 min 0,0 UV-I 120 W/m 10,3 km/h (2 Bft)
23.06.2013 08:12 13,5 C 12,9 C 91 % 1010,2 hPa 0,0 l/m 0 min 0 min 0,0 UV-I 118 W/m 28,3 km/h (4 Bft)
23.06.2013 08:14 13,5 C 12,9 C 91 % 1010,1 hPa 0,0 l/m 0 min 0 min 0,0 UV-I 104 W/m 15,4 km/h (3 Bft)
23.06.2013 08:16 13,6 C 12,9 C 90 % 1010,1 hPa 0,0 l/m 0 min 0 min 0,0 UV-I 148 W/m 12,9 km/h (3 Bft)
23.06.2013 08:18 13,6 C 13,4 C 90 % 1010,1 hPa 0,0 l/m 0 min 0 min 0,0 UV-I 202 W/m 5,1 km/h (1 Bft)
23.06.2013 08:20 13,6 C 13,4 C 90 % 1010,2 hPa 0,0 l/m 2 min 0 min 0,0 UV-I 283 W/m 15,4 km/h (3 Bft)
23.06.2013 08:22 13,7 C 14,0 C 90 % 1010,1 hPa 0,0 l/m 2 min 0 min 0,0 UV-I 251 W/m 18,0 km/h (3 Bft)
23.06.2013 08:24 13,7 C 14,0 C 90 % 1010,1 hPa 0,0 l/m 2 min 0 min 0,0 UV-I 267 W/m 20,6 km/h (4 Bft)
23.06.2013 08:26 13,8 C 14,0 C 90 % 1010,1 hPa 0,0 l/m 0 min 0 min 0,0 UV-I 137 W/m 7,7 km/h (2 Bft)
23.06.2013 08:28 13,9 C 13,4 C 90 % 1010,2 hPa 0,0 l/m 0 min 0 min 0,0 UV-I 144 W/m 18,0 km/h (3 Bft)
23.06.2013 08:30 13,9 C 13,4 C 90 % 1010,1 hPa 0,0 l/m 0 min 0 min 0,0 UV-I 158 W/m 10,3 km/h (2 Bft)
23.06.2013 08:32 14,0 C 13,4 C 90 % 1010,3 hPa 0,0 l/m 0 min 0 min 0,0 UV-I 142 W/m 12,9 km/h (3 Bft)
23.06.2013 08:34 14,0 C 13,4 C 90 % 1010,3 hPa 0,0 l/m 0 min 2 min 0,0 UV-I 100 W/m 18,0 km/h (3 Bft)
23.06.2013 08:36 14,0 C 13,4 C 90 % 1010,3 hPa 0,0 l/m 0 min 2 min 0,0 UV-I 149 W/m 18,0 km/h (3 Bft)
23.06.2013 08:38 14,0 C 13,4 C 89 % 1010,4 hPa 0,0 l/m 0 min 0 min 0,0 UV-I 158 W/m 12,9 km/h (3 Bft)
23.06.2013 08:40 14,0 C 13,4 C 89 % 1010,4 hPa 0,0 l/m 0 min 0 min 0,0 UV-I 232 W/m 12,9 km/h (3 Bft)
23.06.2013 08:42 14,0 C 14,0 C 89 % 1010,4 hPa 0,0 l/m 2 min 0 min 0,0 UV-I 276 W/m 7,7 km/h (2 Bft)
23.06.2013 08:44 14,1 C 14,0 C 89 % 1010,3 hPa 0,0 l/m 0 min 0 min 0,0 UV-I 216 W/m 7,7 km/h (2 Bft)
23.06.2013 08:46 14,1 C 14,0 C 89 % 1010,3 hPa 0,0 l/m 0 min 0 min 0,0 UV-I 171 W/m 18,0 km/h (3 Bft)
23.06.2013 08:48 14,2 C 14,0 C 89 % 1010,4 hPa 0,0 l/m 0 min 0 min 0,0 UV-I 165 W/m 15,4 km/h (3 Bft)
23.06.2013 08:50 14,2 C 14,0 C 89 % 1010,4 hPa 0,0 l/m 0 min 0 min 0,0 UV-I 142 W/m 10,3 km/h (2 Bft)
23.06.2013 08:52 14,3 C 14,0 C 89 % 1010,4 hPa 0,0 l/m 0 min 2 min 0,0 UV-I 134 W/m 12,9 km/h (3 Bft)
23.06.2013 08:54 14,3 C 13,4 C 88 % 1010,4 hPa 0,0 l/m 0 min 2 min 0,0 UV-I 135 W/m 12,9 km/h (3 Bft)
23.06.2013 08:56 14,3 C 13,4 C 88 % 1010,4 hPa 0,0 l/m 0 min 0 min 0,0 UV-I 111 W/m 23,2 km/h (4 Bft)
23.06.2013 08:58 14,3 C 13,4 C 88 % 1010,4 hPa 0,0 l/m 0 min 0 min 0,0 UV-I 118 W/m 10,3 km/h (2 Bft)
23.06.2013 09:00 14,3 C 13,4 C 88 % 1010,4 hPa 0,0 l/m 0 min 0 min 0,0 UV-I 109 W/m 7,7 km/h (2 Bft)
23.06.2013 09:02 14,3 C 13,4 C 88 % 1010,4 hPa 0,0 l/m 0 min 0 min 0,0 UV-I 104 W/m 10,3 km/h (2 Bft)
23.06.2013 09:06 14,3 C 13,4 C 88 % 1010,5 hPa 0,0 l/m 0 min 0 min 0,0 UV-I 146 W/m 10,3 km/h (2 Bft)
23.06.2013 09:08 14,3 C 14,0 C 88 % 1010,5 hPa 0,0 l/m 0 min 0 min 0,0 UV-I 163 W/m 12,9 km/h (3 Bft)
23.06.2013 09:10 14,3 C 14,0 C 88 % 1010,6 hPa 0,0 l/m 0 min 0 min 0,0 UV-I 162 W/m 15,4 km/h (3 Bft)
23.06.2013 09:12 14,3 C 14,0 C 88 % 1010,5 hPa 0,0 l/m 0 min 0 min 0,0 UV-I 146 W/m 12,9 km/h (3 Bft)
23.06.2013 09:14 14,3 C 14,0 C 88 % 1010,5 hPa 0,0 l/m 0 min 0 min 0,0 UV-I 186 W/m 10,3 km/h (2 Bft)
23.06.2013 09:16 14,3 C 14,0 C 87 % 1010,5 hPa 0,0 l/m 0 min 0 min 0,0 UV-I 183 W/m 15,4 km/h (3 Bft)
23.06.2013 09:18 14,3 C 14,0 C 87 % 1010,5 hPa 0,0 l/m 0 min 0 min 0,0 UV-I 148 W/m 18,0 km/h (3 Bft)
23.06.2013 09:20 14,3 C 14,0 C 87 % 1010,5 hPa 0,0 l/m 0 min 0 min 0,0 UV-I 142 W/m 12,9 km/h (3 Bft)
23.06.2013 09:22 14,3 C 14,0 C 87 % 1010,7 hPa 0,0 l/m 0 min 0 min 0,0 UV-I 132 W/m 15,4 km/h (3 Bft)
23.06.2013 09:24 14,3 C 14,0 C 87 % 1010,6 hPa 0,0 l/m 0 min 0 min 0,0 UV-I 107 W/m 10,3 km/h (2 Bft)
23.06.2013 09:26 14,3 C 14,0 C 87 % 1010,6 hPa 0,0 l/m 0 min 0 min 0,0 UV-I 130 W/m 20,6 km/h (4 Bft)
23.06.2013 09:28 14,3 C 14,0 C 87 % 1010,5 hPa 0,0 l/m 0 min 0 min 0,0 UV-I 171 W/m 12,9 km/h (3 Bft)
23.06.2013 09:30 14,3 C 14,0 C 87 % 1010,5 hPa 0,0 l/m 0 min 0 min 0,0 UV-I 141 W/m 15,4 km/h (3 Bft)
23.06.2013 09:32 14,3 C 14,0 C 87 % 1010,5 hPa 0,0 l/m 0 min 0 min 0,0 UV-I 146 W/m 12,9 km/h (3 Bft)
23.06.2013 09:34 14,3 C 14,0 C 87 % 1010,5 hPa 0,0 l/m 0 min 0 min 0,0 UV-I 190 W/m 12,9 km/h (3 Bft)
23.06.2013 09:36 14,4 C 14,0 C 86 % 1010,5 hPa 0,0 l/m 0 min 0 min 0,6 UV-I 220 W/m 10,3 km/h (2 Bft)
23.06.2013 09:38 14,4 C 14,6 C 86 % 1010,6 hPa 0,0 l/m 0 min 0 min 0,8 UV-I 281 W/m 12,9 km/h (3 Bft)
23.06.2013 09:40 14,4 C 14,6 C 86 % 1010,5 hPa 0,0 l/m 0 min 0 min 0,7 UV-I 269 W/m 18,0 km/h (3 Bft)
23.06.2013 09:42 14,5 C 14,6 C 86 % 1010,5 hPa 0,0 l/m 0 min 0 min 0,5 UV-I 216 W/m 10,3 km/h (2 Bft)
23.06.2013 09:44 14,6 C 14,6 C 86 % 1010,6 hPa 0,0 l/m 0 min 0 min 0,7 UV-I 276 W/m 10,3 km/h (2 Bft)
23.06.2013 09:46 14,6 C 14,6 C 86 % 1010,5 hPa 0,0 l/m 0 min 0 min 0,8 UV-I 290 W/m 10,3 km/h (2 Bft)
23.06.2013 09:48 14,7 C 15,1 C 86 % 1010,5 hPa 0,0 l/m 0 min 0 min 0,8 UV-I 244 W/m 12,9 km/h (3 Bft)
23.06.2013 09:50 14,7 C 15,1 C 86 % 1010,4 hPa 0,0 l/m 2 min 0 min 1,2 UV-I 380 W/m 30,9 km/h (5 Bft)
23.06.2013 09:52 14,8 C 15,1 C 86 % 1010,5 hPa 0,0 l/m 2 min 0 min 1,1 UV-I 380 W/m 12,9 km/h (3 Bft)
23.06.2013 09:54 14,9 C 15,1 C 85 % 1010,6 hPa 0,0 l/m 2 min 0 min 1,4 UV-I 385 W/m 12,9 km/h (3 Bft)
23.06.2013 09:56 14,9 C 15,1 C 85 % 1010,6 hPa 0,0 l/m 2 min 0 min 1,5 UV-I 385 W/m 10,3 km/h (2 Bft)
23.06.2013 09:58 15,0 C 15,1 C 84 % 1010,6 hPa 0,0 l/m 0 min 0 min 1,1 UV-I 229 W/m 15,4 km/h (3 Bft)
23.06.2013 10:00 15,1 C 15,7 C 84 % 1010,5 hPa 0,0 l/m 2 min 0 min 1,5 UV-I 403 W/m 18,0 km/h (3 Bft)
23.06.2013 10:02 15,2 C 16,2 C 84 % 1010,5 hPa 0,0 l/m 2 min 0 min 1,2 UV-I 413 W/m 12,9 km/h (3 Bft)
23.06.2013 10:06 15,4 C 16,8 C 83 % 1010,6 hPa 0,0 l/m 2 min 0 min 1,1 UV-I 522 W/m 20,6 km/h (4 Bft)
23.06.2013 10:08 15,6 C 16,2 C 83 % 1010,6 hPa 0,0 l/m 0 min 0 min 0,7 UV-I 223 W/m 12,9 km/h (3 Bft)
23.06.2013 10:10 15,7 C 15,7 C 83 % 1010,9 hPa 0,0 l/m 0 min 0 min 1,0 UV-I 253 W/m 20,6 km/h (4 Bft)
23.06.2013 10:12 15,7 C 15,7 C 82 % 1010,8 hPa 0,0 l/m 0 min 0 min 1,0 UV-I 301 W/m 10,3 km/h (2 Bft)
23.06.2013 10:14 15,7 C 15,7 C 81 % 1010,6 hPa 0,0 l/m 2 min 0 min 1,3 UV-I 388 W/m 25,7 km/h (4 Bft)
23.06.2013 10:16 15,8 C 16,8 C 82 % 1010,6 hPa 0,0 l/m 2 min 0 min 1,9 UV-I 408 W/m 0,0 km/h (0 Bft)
23.06.2013 10:18 15,9 C 16,8 C 82 % 1010,8 hPa 0,0 l/m 0 min 0 min 1,1 UV-I 318 W/m 12,9 km/h (3 Bft)
23.06.2013 10:20 15,9 C 16,2 C 81 % 1010,7 hPa 0,0 l/m 0 min 0 min 1,1 UV-I 315 W/m 20,6 km/h (4 Bft)
23.06.2013 10:22 15,9 C 16,2 C 80 % 1010,6 hPa 0,0 l/m 0 min 0 min 0,9 UV-I 306 W/m 20,6 km/h (4 Bft)
23.06.2013 10:24 16,0 C 15,7 C 80 % 1010,6 hPa 0,0 l/m 0 min 0 min 1,1 UV-I 299 W/m 7,7 km/h (2 Bft)
23.06.2013 10:26 16,0 C 16,2 C 80 % 1010,7 hPa 0,0 l/m 2 min 0 min 1,8 UV-I 415 W/m 10,3 km/h (2 Bft)
23.06.2013 10:28 16,1 C 16,8 C 79 % 1010,7 hPa 0,0 l/m 0 min 0 min 1,2 UV-I 348 W/m 23,2 km/h (4 Bft)
23.06.2013 10:30 16,2 C 17,9 C 79 % 1010,6 hPa 0,0 l/m 0 min 0 min 1,8 UV-I 364 W/m 15,4 km/h (3 Bft)
23.06.2013 10:32 16,3 C 17,9 C 79 % 1010,7 hPa 0,0 l/m 0 min 0 min 1,8 UV-I 364 W/m 12,9 km/h (3 Bft)
23.06.2013 10:34 16,5 C 17,9 C 78 % 1010,8 hPa 0,0 l/m 0 min 0 min 1,7 UV-I 364 W/m 28,3 km/h (4 Bft)
23.06.2013 10:36 16,5 C 17,9 C 78 % 1010,6 hPa 0,0 l/m 2 min 0 min 1,8 UV-I 483 W/m 12,9 km/h (3 Bft)
23.06.2013 10:38 16,4 C 17,9 C 78 % 1010,6 hPa 0,0 l/m 2 min 0 min 2,4 UV-I 483 W/m 23,2 km/h (4 Bft)
23.06.2013 10:40 16,5 C 17,9 C 78 % 1010,6 hPa 0,0 l/m 2 min 0 min 2,2 UV-I 483 W/m 12,9 km/h (3 Bft)
23.06.2013 10:42 16,5 C 17,9 C 78 % 1010,7 hPa 0,0 l/m 0 min 0 min 1,6 UV-I 318 W/m 18,0 km/h (3 Bft)
23.06.2013 10:44 16,4 C 16,8 C 77 % 1010,8 hPa 0,0 l/m 0 min 0 min 1,3 UV-I 318 W/m 30,9 km/h (5 Bft)
23.06.2013 10:46 16,3 C 16,2 C 77 % 1010,7 hPa 0,0 l/m 0 min 0 min 1,1 UV-I 243 W/m 15,4 km/h (3 Bft)
23.06.2013 10:48 16,2 C 16,2 C 78 % 1010,8 hPa 0,0 l/m 0 min 0 min 1,1 UV-I 276 W/m 10,3 km/h (2 Bft)
23.06.2013 10:50 16,1 C 15,7 C 77 % 1010,6 hPa 0,0 l/m 0 min 0 min 0,9 UV-I 279 W/m 15,4 km/h (3 Bft)
23.06.2013 10:52 16,0 C 16,2 C 78 % 1010,8 hPa 0,0 l/m 0 min 0 min 0,7 UV-I 206 W/m 23,2 km/h (4 Bft)
23.06.2013 10:54 15,9 C 15,7 C 78 % 1010,9 hPa 0,0 l/m 0 min 0 min 0,9 UV-I 236 W/m 23,2 km/h (4 Bft)
23.06.2013 10:56 15,8 C 15,7 C 79 % 1010,7 hPa 0,0 l/m 0 min 0 min 1,1 UV-I 285 W/m 10,3 km/h (2 Bft)
23.06.2013 10:58 15,8 C 15,7 C 79 % 1010,7 hPa 0,0 l/m 0 min 0 min 0,9 UV-I 243 W/m 23,2 km/h (4 Bft)
23.06.2013 11:00 15,8 C 15,7 C 79 % 1010,7 hPa 0,0 l/m 0 min 0 min 0,0 UV-I 183 W/m 12,9 km/h (3 Bft)
23.06.2013 11:02 15,9 C 15,7 C 79 % 1010,7 hPa 0,0 l/m 0 min 0 min 0,0 UV-I 120 W/m 15,4 km/h (3 Bft)
23.06.2013 11:06 15,8 C 15,1 C 79 % 1010,7 hPa 0,0 l/m 0 min 0 min 0,0 UV-I 120 W/m 12,9 km/h (3 Bft)
23.06.2013 11:08 15,8 C 15,1 C 79 % 1010,8 hPa 0,0 l/m 0 min 0 min 0,0 UV-I 102 W/m 7,7 km/h (2 Bft)
23.06.2013 11:10 15,8 C 15,1 C 79 % 1010,8 hPa 0,0 l/m 0 min 0 min 0,0 UV-I 120 W/m 10,3 km/h (2 Bft)
23.06.2013 11:12 15,8 C 14,6 C 79 % 1010,8 hPa 0,0 l/m 0 min 0 min 0,0 UV-I 70 W/m 15,4 km/h (3 Bft)
23.06.2013 11:14 15,8 C 14,6 C 79 % 1010,9 hPa 0,0 l/m 0 min 2 min 0,0 UV-I 77 W/m 15,4 km/h (3 Bft)
23.06.2013 11:16 15,8 C 14,6 C 79 % 1010,9 hPa 0,0 l/m 0 min 0 min 0,0 UV-I 243 W/m 18,0 km/h (3 Bft)
23.06.2013 11:18 15,8 C 15,1 C 80 % 1010,9 hPa 0,0 l/m 0 min 0 min 1,4 UV-I 309 W/m 18,0 km/h (3 Bft)
23.06.2013 11:20 15,8 C 15,7 C 80 % 1010,9 hPa 0,0 l/m 0 min 0 min 1,3 UV-I 339 W/m 15,4 km/h (3 Bft)
23.06.2013 11:22 15,8 C 15,7 C 80 % 1011,0 hPa 0,0 l/m 0 min 0 min 1,0 UV-I 243 W/m 15,4 km/h (3 Bft)
23.06.2013 11:24 15,8 C 15,7 C 80 % 1010,9 hPa 0,0 l/m 0 min 0 min 1,2 UV-I 294 W/m 18,0 km/h (3 Bft)
23.06.2013 11:26 15,9 C 15,7 C 79 % 1010,9 hPa 0,0 l/m 0 min 0 min 1,2 UV-I 292 W/m 15,4 km/h (3 Bft)
23.06.2013 11:28 15,9 C 15,7 C 79 % 1010,9 hPa 0,0 l/m 0 min 0 min 0,9 UV-I 241 W/m 23,2 km/h (4 Bft)
23.06.2013 11:30 15,9 C 15,7 C 79 % 1010,9 hPa 0,0 l/m 0 min 0 min 1,1 UV-I 278 W/m 10,3 km/h (2 Bft)
23.06.2013 11:32 15,9 C 15,7 C 78 % 1011,0 hPa 0,0 l/m 0 min 0 min 1,5 UV-I 329 W/m 20,6 km/h (4 Bft)
23.06.2013 11:34 15,9 C 16,2 C 77 % 1010,9 hPa 0,0 l/m 0 min 0 min 1,8 UV-I 390 W/m 23,2 km/h (4 Bft)
23.06.2013 11:36 16,1 C 16,2 C 78 % 1011,0 hPa 0,0 l/m 2 min 0 min 3,0 UV-I 446 W/m 25,7 km/h (4 Bft)
23.06.2013 11:38 16,3 C 17,9 C 78 % 1011,0 hPa 0,0 l/m 2 min 0 min 2,9 UV-I 446 W/m 18,0 km/h (3 Bft)
23.06.2013 11:40 16,4 C 17,9 C 77 % 1010,9 hPa 0,0 l/m 2 min 0 min 2,4 UV-I 515 W/m 23,2 km/h (4 Bft)
23.06.2013 11:42 16,5 C 17,3 C 76 % 1010,9 hPa 0,0 l/m 0 min 0 min 1,2 UV-I 302 W/m 18,0 km/h (3 Bft)
23.06.2013 11:44 16,5 C 16,8 C 76 % 1010,8 hPa 0,0 l/m 0 min 0 min 1,0 UV-I 255 W/m 18,0 km/h (3 Bft)
23.06.2013 11:46 16,4 C 16,2 C 76 % 1011,0 hPa 0,0 l/m 0 min 0 min 0,0 UV-I 158 W/m 30,9 km/h (5 Bft)
23.06.2013 11:48 16,3 C 15,7 C 76 % 1011,1 hPa 0,0 l/m 0 min 0 min 0,5 UV-I 174 W/m 33,5 km/h (5 Bft)
23.06.2013 11:50 16,2 C 15,7 C 77 % 1011,0 hPa 0,0 l/m 0 min 0 min 1,0 UV-I 234 W/m 18,0 km/h (3 Bft)
23.06.2013 11:52 16,1 C 15,7 C 77 % 1011,0 hPa 0,0 l/m 0 min 0 min 1,0 UV-I 241 W/m 15,4 km/h (3 Bft)
23.06.2013 11:54 16,1 C 15,7 C 78 % 1011,1 hPa 0,0 l/m 0 min 0 min 1,1 UV-I 253 W/m 12,9 km/h (3 Bft)
23.06.2013 11:56 16,1 C 15,7 C 77 % 1011,0 hPa 0,0 l/m 0 min 0 min 0,9 UV-I 241 W/m 23,2 km/h (4 Bft)
23.06.2013 11:58 16,1 C 15,7 C 77 % 1011,0 hPa 0,0 l/m 0 min 0 min 0,7 UV-I 216 W/m 15,4 km/h (3 Bft)
23.06.2013 12:00 16,1 C 15,7 C 77 % 1011,1 hPa 0,0 l/m 0 min 0 min 0,5 UV-I 176 W/m 30,9 km/h (5 Bft)
23.06.2013 12:02 16,1 C 15,7 C 78 % 1011,1 hPa 0,0 l/m 0 min 0 min 0,0 UV-I 165 W/m 23,2 km/h (4 Bft)
23.06.2013 12:06 16,1 C 15,7 C 78 % 1011,1 hPa 0,0 l/m 0 min 0 min 1,1 UV-I 241 W/m 33,5 km/h (5 Bft)
23.06.2013 12:08 16,1 C 15,7 C 78 % 1011,1 hPa 0,0 l/m 0 min 0 min 0,9 UV-I 229 W/m 20,6 km/h (4 Bft)
23.06.2013 12:10 16,1 C 15,7 C 78 % 1011,1 hPa 0,0 l/m 0 min 0 min 1,1 UV-I 267 W/m 10,3 km/h (2 Bft)
23.06.2013 12:12 16,1 C 15,7 C 78 % 1011,4 hPa 0,0 l/m 0 min 0 min 1,4 UV-I 309 W/m 30,9 km/h (5 Bft)
23.06.2013 12:14 16,1 C 16,2 C 77 % 1011,1 hPa 0,0 l/m 0 min 0 min 1,7 UV-I 359 W/m 23,2 km/h (4 Bft)
23.06.2013 12:16 16,1 C 16,2 C 77 % 1011,1 hPa 0,0 l/m 0 min 0 min 1,9 UV-I 394 W/m 18,0 km/h (3 Bft)
23.06.2013 12:18 16,2 C 16,2 C 77 % 1011,1 hPa 0,0 l/m 0 min 0 min 1,8 UV-I 374 W/m 20,6 km/h (4 Bft)
23.06.2013 12:20 16,2 C 16,8 C 78 % 1011,1 hPa 0,0 l/m 2 min 0 min 2,2 UV-I 476 W/m 10,3 km/h (2 Bft)
23.06.2013 12:22 16,3 C 17,3 C 78 % 1011,1 hPa 0,0 l/m 2 min 0 min 2,6 UV-I 524 W/m 15,4 km/h (3 Bft)
23.06.2013 12:24 16,4 C 17,3 C 77 % 1011,2 hPa 0,0 l/m 2 min 0 min 2,6 UV-I 473 W/m 25,7 km/h (4 Bft)
23.06.2013 12:26 16,4 C 17,3 C 77 % 1011,1 hPa 0,0 l/m 0 min 0 min 2,2 UV-I 352 W/m 23,2 km/h (4 Bft)
23.06.2013 12:28 16,4 C 16,8 C 77 % 1011,3 hPa 0,0 l/m 0 min 0 min 1,1 UV-I 232 W/m 20,6 km/h (4 Bft)
23.06.2013 12:30 16,4 C 16,2 C 77 % 1011,3 hPa 0,0 l/m 0 min 0 min 0,0 UV-I 144 W/m 18,0 km/h (3 Bft)
23.06.2013 12:32 16,4 C 15,7 C 77 % 1011,3 hPa 0,0 l/m 0 min 0 min 0,8 UV-I 262 W/m 28,3 km/h (4 Bft)
23.06.2013 12:34 16,3 C 15,7 C 78 % 1011,3 hPa 0,0 l/m 0 min 0 min 2,2 UV-I 364 W/m 15,4 km/h (3 Bft)
23.06.2013 12:36 16,3 C 16,8 C 79 % 1011,4 hPa 0,0 l/m 0 min 0 min 3,3 UV-I 364 W/m 15,4 km/h (3 Bft)
23.06.2013 12:38 16,3 C 18,4 C 79 % 1011,4 hPa 0,0 l/m 2 min 0 min 3,4 UV-I 652 W/m 28,3 km/h (4 Bft)
23.06.2013 12:40 16,4 C 17,9 C 79 % 1011,4 hPa 0,0 l/m 2 min 0 min 2,6 UV-I 652 W/m 20,6 km/h (4 Bft)
23.06.2013 12:42 16,4 C 17,9 C 79 % 1011,4 hPa 0,0 l/m 2 min 0 min 3,0 UV-I 548 W/m 20,6 km/h (4 Bft)
23.06.2013 12:44 16,6 C 17,9 C 79 % 1011,3 hPa 0,0 l/m 2 min 0 min 2,4 UV-I 480 W/m 18,0 km/h (3 Bft)
23.06.2013 12:46 16,5 C 17,9 C 79 % 1011,4 hPa 0,0 l/m 2 min 0 min 2,7 UV-I 487 W/m 23,2 km/h (4 Bft)
23.06.2013 12:48 16,5 C 17,9 C 79 % 1011,5 hPa 0,0 l/m 2 min 0 min 2,8 UV-I 508 W/m 23,2 km/h (4 Bft)
23.06.2013 12:50 16,5 C 17,3 C 78 % 1011,4 hPa 0,0 l/m 2 min 0 min 2,7 UV-I 538 W/m 33,5 km/h (5 Bft)
23.06.2013 12:52 16,4 C 17,9 C 78 % 1011,3 hPa 0,0 l/m 2 min 0 min 2,2 UV-I 543 W/m 38,6 km/h (5 Bft)
23.06.2013 12:54 16,5 C 17,9 C 80 % 1011,3 hPa 0,0 l/m 2 min 0 min 2,3 UV-I 543 W/m 10,3 km/h (2 Bft)
23.06.2013 12:56 16,6 C 17,3 C 78 % 1011,4 hPa 0,0 l/m 0 min 0 min 2,7 UV-I 446 W/m 18,0 km/h (3 Bft)
23.06.2013 12:58 16,6 C 19,6 C 79 % 1011,3 hPa 0,0 l/m 0 min 0 min 5,2 UV-I 446 W/m 23,2 km/h (4 Bft)
23.06.2013 13:00 16,9 C 19,6 C 78 % 1011,3 hPa 0,0 l/m 2 min 0 min 4,6 UV-I 526 W/m 7,7 km/h (2 Bft)
23.06.2013 13:02 16,9 C 19,0 C 77 % 1011,3 hPa 0,0 l/m 0 min 0 min 2,3 UV-I 374 W/m 20,6 km/h (4 Bft)
23.06.2013 13:06 16,8 C 20,1 C 78 % 1011,5 hPa 0,0 l/m 2 min 0 min 3,3 UV-I 719 W/m 23,2 km/h (4 Bft)
23.06.2013 13:08 17,0 C 21,2 C 79 % 1011,5 hPa 0,0 l/m 2 min 0 min 3,0 UV-I 719 W/m 38,6 km/h (5 Bft)
23.06.2013 13:10 16,8 C 19,0 C 77 % 1011,6 hPa 0,0 l/m 2 min 0 min 3,5 UV-I 510 W/m 28,3 km/h (4 Bft)
23.06.2013 13:12 16,8 C 19,6 C 80 % 1011,5 hPa 0,0 l/m 2 min 0 min 3,3 UV-I 510 W/m 30,9 km/h (5 Bft)
23.06.2013 13:14 16,9 C 19,6 C 80 % 1011,6 hPa 0,0 l/m 2 min 0 min 3,1 UV-I 710 W/m 30,9 km/h (5 Bft)
23.06.2013 13:16 16,9 C 19,0 C 80 % 1011,8 hPa 0,0 l/m 2 min 0 min 3,1 UV-I 522 W/m 36,0 km/h (5 Bft)
23.06.2013 13:18 16,7 C 18,4 C 79 % 1011,6 hPa 0,0 l/m 2 min 0 min 3,4 UV-I 765 W/m 25,7 km/h (4 Bft)
23.06.2013 13:20 16,6 C 18,4 C 80 % 1011,7 hPa 0,0 l/m 2 min 0 min 3,3 UV-I 529 W/m 25,7 km/h (4 Bft)
23.06.2013 13:22 16,4 C 17,9 C 80 % 1011,8 hPa 0,0 l/m 2 min 0 min 2,5 UV-I 529 W/m 30,9 km/h (5 Bft)
23.06.2013 13:24 16,2 C 17,3 C 81 % 1011,7 hPa 0,0 l/m 0 min 2 min 2,6 UV-I 366 W/m 28,3 km/h (4 Bft)
23.06.2013 13:26 16,0 C 16,2 C 83 % 1011,6 hPa 0,0 l/m 0 min 2 min 1,9 UV-I 329 W/m 20,6 km/h (4 Bft)
23.06.2013 13:28 15,8 C 16,2 C 84 % 1011,5 hPa 0,0 l/m 0 min 2 min 2,5 UV-I 378 W/m 33,5 km/h (5 Bft)
23.06.2013 13:30 15,6 C 16,2 C 84 % 1011,7 hPa 0,0 l/m 2 min 2 min 3,1 UV-I 552 W/m 20,6 km/h (4 Bft)
23.06.2013 13:32 15,5 C 16,8 C 85 % 1011,6 hPa 0,0 l/m 2 min 0 min 3,4 UV-I 585 W/m 20,6 km/h (4 Bft)
23.06.2013 13:34 15,6 C 17,9 C 86 % 1011,6 hPa 0,0 l/m 2 min 2 min 3,5 UV-I 663 W/m 25,7 km/h (4 Bft)
23.06.2013 13:36 15,7 C 17,9 C 85 % 1011,6 hPa 0,0 l/m 2 min 0 min 3,5 UV-I 712 W/m 18,0 km/h (3 Bft)
23.06.2013 13:38 15,8 C 17,9 C 84 % 1011,7 hPa 0,0 l/m 2 min 0 min 3,2 UV-I 636 W/m 15,4 km/h (3 Bft)
23.06.2013 13:40 16,2 C 18,4 C 85 % 1011,7 hPa 0,0 l/m 2 min 0 min 3,1 UV-I 534 W/m 20,6 km/h (4 Bft)
23.06.2013 13:42 16,3 C 17,9 C 83 % 1011,6 hPa 0,0 l/m 2 min 0 min 2,9 UV-I 499 W/m 28,3 km/h (4 Bft)
23.06.2013 13:44 16,2 C 17,3 C 82 % 1011,6 hPa 0,0 l/m 2 min 0 min 2,7 UV-I 494 W/m 20,6 km/h (4 Bft)
23.06.2013 13:46 16,2 C 17,3 C 82 % 1011,7 hPa 0,0 l/m 0 min 0 min 2,1 UV-I 388 W/m 28,3 km/h (4 Bft)
23.06.2013 13:48 16,1 C 16,8 C 82 % 1011,7 hPa 0,0 l/m 0 min 0 min 1,8 UV-I 311 W/m 28,3 km/h (4 Bft)
23.06.2013 13:50 15,9 C 16,8 C 82 % 1011,8 hPa 0,0 l/m 0 min 0 min 1,6 UV-I 308 W/m 51,5 km/h (7 Bft)
23.06.2013 13:52 15,8 C 16,2 C 82 % 1011,8 hPa 0,0 l/m 0 min 0 min 2,0 UV-I 360 W/m 20,6 km/h (4 Bft)
23.06.2013 13:54 15,7 C 16,2 C 83 % 1011,9 hPa 0,0 l/m 0 min 0 min 2,5 UV-I 457 W/m 18,0 km/h (3 Bft)
23.06.2013 13:56 15,8 C 16,8 C 84 % 1012,0 hPa 0,0 l/m 2 min 0 min 3,6 UV-I 512 W/m 28,3 km/h (4 Bft)
23.06.2013 13:58 15,9 C 17,9 C 84 % 1011,8 hPa 0,0 l/m 2 min 0 min 3,7 UV-I 578 W/m 23,2 km/h (4 Bft)
23.06.2013 14:00 16,0 C 17,3 C 82 % 1011,7 hPa 0,0 l/m 2 min 0 min 2,2 UV-I 578 W/m 33,5 km/h (5 Bft)
23.06.2013 14:02 16,1 C 17,3 C 83 % 1011,8 hPa 0,0 l/m 0 min 0 min 5,9 UV-I 390 W/m 15,4 km/h (3 Bft)
23.06.2013 14:06 16,7 C 18,4 C 82 % 1011,9 hPa 0,0 l/m 2 min 0 min 5,5 UV-I 812 W/m 23,2 km/h (4 Bft)
23.06.2013 14:08 16,8 C 17,9 C 81 % 1011,8 hPa 0,0 l/m 2 min 0 min 2,2 UV-I 812 W/m 25,7 km/h (4 Bft)
23.06.2013 14:10 16,7 C 17,9 C 81 % 1011,8 hPa 0,0 l/m 0 min 0 min 1,5 UV-I 299 W/m 18,0 km/h (3 Bft)
23.06.2013 14:12 16,6 C 17,3 C 80 % 1011,8 hPa 0,0 l/m 2 min 0 min 2,8 UV-I 517 W/m 18,0 km/h (3 Bft)
23.06.2013 14:14 16,5 C 17,9 C 80 % 1012,0 hPa 0,0 l/m 2 min 0 min 5,4 UV-I 557 W/m 15,4 km/h (3 Bft)
23.06.2013 14:16 16,8 C 18,4 C 81 % 1011,8 hPa 0,0 l/m 2 min 0 min 2,3 UV-I 557 W/m 23,2 km/h (4 Bft)
23.06.2013 14:18 16,8 C 17,9 C 79 % 1011,8 hPa 0,0 l/m 0 min 0 min 4,0 UV-I 394 W/m 25,7 km/h (4 Bft)
23.06.2013 14:20 16,8 C 17,9 C 81 % 1011,9 hPa 0,0 l/m 0 min 0 min 4,5 UV-I 455 W/m 15,4 km/h (3 Bft)
23.06.2013 14:22 17,1 C 18,4 C 80 % 1011,9 hPa 0,0 l/m 0 min 0 min 4,8 UV-I 455 W/m 18,0 km/h (3 Bft)
23.06.2013 14:24 17,2 C 18,4 C 79 % 1011,9 hPa 0,0 l/m 0 min 0 min 2,7 UV-I 436 W/m 25,7 km/h (4 Bft)
23.06.2013 14:26 17,1 C 18,4 C 79 % 1011,9 hPa 0,0 l/m 2 min 0 min 3,1 UV-I 659 W/m 30,9 km/h (5 Bft)
23.06.2013 14:28 17,2 C 19,0 C 79 % 1011,9 hPa 0,0 l/m 2 min 0 min 2,5 UV-I 719 W/m 10,3 km/h (2 Bft)
23.06.2013 14:30 17,2 C 18,4 C 79 % 1011,9 hPa 0,0 l/m 0 min 0 min 2,7 UV-I 374 W/m 15,4 km/h (3 Bft)
23.06.2013 14:32 17,2 C 18,4 C 80 % 1011,9 hPa 0,0 l/m 0 min 0 min 2,1 UV-I 359 W/m 7,7 km/h (2 Bft)
23.06.2013 14:34 17,2 C 17,9 C 79 % 1011,9 hPa 0,0 l/m 0 min 0 min 1,6 UV-I 304 W/m 20,6 km/h (4 Bft)
23.06.2013 14:36 16,9 C 17,3 C 78 % 1012,0 hPa 0,0 l/m 0 min 0 min 1,5 UV-I 292 W/m 30,9 km/h (5 Bft)
23.06.2013 14:38 16,8 C 17,3 C 78 % 1012,0 hPa 0,0 l/m 0 min 0 min 1,1 UV-I 243 W/m 25,7 km/h (4 Bft)
23.06.2013 14:40 16,7 C 16,8 C 79 % 1012,1 hPa 0,0 l/m 0 min 0 min 0,8 UV-I 206 W/m 30,9 km/h (5 Bft)
23.06.2013 14:42 16,5 C 16,2 C 79 % 1011,9 hPa 0,0 l/m 0 min 0 min 0,5 UV-I 167 W/m 18,0 km/h (3 Bft)
23.06.2013 14:44 16,4 C 16,2 C 80 % 1012,0 hPa 0,0 l/m 0 min 2 min 0,7 UV-I 171 W/m 18,0 km/h (3 Bft)
23.06.2013 14:46 16,3 C 15,7 C 81 % 1012,0 hPa 0,0 l/m 0 min 2 min 1,5 UV-I 329 W/m 15,4 km/h (3 Bft)
23.06.2013 14:48 16,2 C 16,2 C 82 % 1012,0 hPa 0,0 l/m 0 min 2 min 2,1 UV-I 396 W/m 7,7 km/h (2 Bft)
23.06.2013 14:50 16,1 C 16,2 C 81 % 1012,1 hPa 0,0 l/m 0 min 0 min 1,3 UV-I 288 W/m 12,9 km/h (3 Bft)
23.06.2013 14:52 16,1 C 16,2 C 81 % 1012,2 hPa 0,0 l/m 0 min 0 min 1,2 UV-I 250 W/m 12,9 km/h (3 Bft)
23.06.2013 14:54 16,1 C 16,2 C 81 % 1012,2 hPa 0,0 l/m 0 min 0 min 0,6 UV-I 185 W/m 25,7 km/h (4 Bft)
23.06.2013 14:56 16,1 C 16,2 C 81 % 1012,1 hPa 0,0 l/m 0 min 0 min 1,3 UV-I 279 W/m 7,7 km/h (2 Bft)
23.06.2013 14:58 16,1 C 16,8 C 81 % 1012,1 hPa 0,0 l/m 2 min 0 min 3,0 UV-I 531 W/m 20,6 km/h (4 Bft)
23.06.2013 15:00 16,0 C 16,8 C 80 % 1012,1 hPa 0,0 l/m 2 min 0 min 3,2 UV-I 566 W/m 30,9 km/h (5 Bft)
23.06.2013 15:02 16,2 C 17,3 C 81 % 1012,0 hPa 0,0 l/m 2 min 0 min 2,5 UV-I 575 W/m 12,9 km/h (3 Bft)
23.06.2013 15:06 16,7 C 17,9 C 81 % 1012,0 hPa 0,0 l/m 2 min 0 min 5,7 UV-I 476 W/m 23,2 km/h (4 Bft)
23.06.2013 15:08 17,1 C 18,4 C 80 % 1011,9 hPa 0,0 l/m 2 min 0 min 5,8 UV-I 1093 W/m 28,3 km/h (4 Bft)
23.06.2013 15:10 17,3 C 18,4 C 79 % 1012,1 hPa 0,0 l/m 2 min 0 min 3,5 UV-I 640 W/m 33,5 km/h (5 Bft)
23.06.2013 15:12 17,4 C 18,4 C 79 % 1011,9 hPa 0,0 l/m 2 min 0 min 4,3 UV-I 640 W/m 15,4 km/h (3 Bft)
23.06.2013 15:14 17,6 C 19,0 C 79 % 1011,9 hPa 0,0 l/m 2 min 0 min 2,3 UV-I 527 W/m 15,4 km/h (3 Bft)
23.06.2013 15:16 17,6 C 18,4 C 78 % 1012,0 hPa 0,0 l/m 0 min 0 min 1,6 UV-I 313 W/m 12,9 km/h (3 Bft)
23.06.2013 15:18 17,5 C 18,4 C 78 % 1011,9 hPa 0,0 l/m 0 min 0 min 2,1 UV-I 383 W/m 12,9 km/h (3 Bft)
23.06.2013 15:20 17,4 C 18,4 C 79 % 1011,9 hPa 0,0 l/m 0 min 0 min 1,9 UV-I 385 W/m 10,3 km/h (2 Bft)
23.06.2013 15:22 17,4 C 17,9 C 78 % 1012,0 hPa 0,0 l/m 0 min 2 min 1,7 UV-I 383 W/m 15,4 km/h (3 Bft)
23.06.2013 15:24 17,2 C 17,3 C 78 % 1012,4 hPa 0,0 l/m 0 min 2 min 1,5 UV-I 336 W/m 28,3 km/h (4 Bft)
23.06.2013 15:26 16,9 C 16,8 C 80 % 1012,2 hPa 0,0 l/m 0 min 2 min 0,9 UV-I 234 W/m 15,4 km/h (3 Bft)
23.06.2013 15:28 16,8 C 16,2 C 81 % 1012,3 hPa 0,0 l/m 0 min 2 min 1,2 UV-I 243 W/m 20,6 km/h (4 Bft)
23.06.2013 15:30 16,6 C 15,1 C 82 % 1012,4 hPa 0,0 l/m 0 min 2 min 0,7 UV-I 204 W/m 25,7 km/h (4 Bft)
23.06.2013 15:32 16,3 C 14,6 C 83 % 1012,4 hPa 0,0 l/m 0 min 2 min 0,7 UV-I 207 W/m 18,0 km/h (3 Bft)
23.06.2013 15:34 16,0 C 14,6 C 85 % 1012,3 hPa 0,0 l/m 0 min 2 min 1,2 UV-I 271 W/m 10,3 km/h (2 Bft)
23.06.2013 15:36 15,7 C 14,6 C 86 % 1012,3 hPa 0,0 l/m 0 min 2 min 1,5 UV-I 322 W/m 18,0 km/h (3 Bft)
23.06.2013 15:38 15,5 C 14,0 C 86 % 1012,4 hPa 0,0 l/m 0 min 2 min 1,8 UV-I 380 W/m 20,6 km/h (4 Bft)
23.06.2013 15:40 15,4 C 14,6 C 86 % 1012,4 hPa 0,0 l/m 0 min 2 min 2,1 UV-I 432 W/m 15,4 km/h (3 Bft)
23.06.2013 15:42 15,6 C 15,1 C 87 % 1012,3 hPa 0,0 l/m 2 min 2 min 2,2 UV-I 445 W/m 10,3 km/h (2 Bft)
23.06.2013 15:44 15,7 C 15,7 C 88 % 1012,3 hPa 0,0 l/m 0 min 0 min 1,8 UV-I 378 W/m 12,9 km/h (3 Bft)
23.06.2013 15:46 15,8 C 15,1 C 87 % 1012,3 hPa 0,0 l/m 0 min 0 min 1,7 UV-I 366 W/m 15,4 km/h (3 Bft)
23.06.2013 15:48 15,9 C 15,7 C 86 % 1012,3 hPa 0,0 l/m 2 min 0 min 2,3 UV-I 473 W/m 2,6 km/h (1 Bft)
23.06.2013 15:50 16,1 C 16,2 C 86 % 1012,4 hPa 0,0 l/m 2 min 0 min 2,1 UV-I 436 W/m 10,3 km/h (2 Bft)
23.06.2013 15:52 16,3 C 16,8 C 85 % 1012,3 hPa 0,0 l/m 2 min 0 min 2,9 UV-I 559 W/m 20,6 km/h (4 Bft)
23.06.2013 15:54 16,6 C 17,3 C 85 % 1012,1 hPa 0,0 l/m 2 min 0 min 4,4 UV-I 559 W/m 10,3 km/h (2 Bft)
23.06.2013 15:56 16,9 C 17,3 C 84 % 1012,2 hPa 0,0 l/m 2 min 0 min 2,0 UV-I 559 W/m 7,7 km/h (2 Bft)
23.06.2013 15:58 17,1 C 17,3 C 83 % 1012,2 hPa 0,0 l/m 0 min 0 min 1,8 UV-I 322 W/m 18,0 km/h (3 Bft)
23.06.2013 16:00 17,1 C 17,9 C 84 % 1012,2 hPa 0,0 l/m 0 min 0 min 1,6 UV-I 292 W/m 20,6 km/h (4 Bft)
23.06.2013 16:02 16,9 C 17,3 C 81 % 1012,2 hPa 0,0 l/m 0 min 0 min 1,5 UV-I 332 W/m 20,6 km/h (4 Bft)
23.06.2013 16:05 16,6 C 17,3 C 82 % 1012,1 hPa 0,0 l/m 2 min 0 min 2,1 UV-I 439 W/m 30,9 km/h (5 Bft)
23.06.2013 16:06 16,6 C 17,3 C 82 % 1012,1 hPa 0,0 l/m 1 min 0 min 1,9 UV-I 424 W/m 7,7 km/h (2 Bft)
23.06.2013 16:08 16,6 C 17,3 C 82 % 1012,3 hPa 0,0 l/m 0 min 0 min 1,5 UV-I 294 W/m 18,0 km/h (3 Bft)
23.06.2013 16:10 16,4 C 16,8 C 81 % 1012,2 hPa 0,0 l/m 0 min 0 min 1,1 UV-I 253 W/m 15,4 km/h (3 Bft)
23.06.2013 16:12 16,3 C 16,8 C 82 % 1012,2 hPa 0,0 l/m 0 min 0 min 0,9 UV-I 236 W/m 15,4 km/h (3 Bft)
23.06.2013 16:14 16,2 C 16,2 C 82 % 1012,1 hPa 0,0 l/m 0 min 0 min 0,8 UV-I 246 W/m 15,4 km/h (3 Bft)
23.06.2013 16:16 16,2 C 16,2 C 83 % 1012,1 hPa 0,0 l/m 0 min 0 min 2,0 UV-I 345 W/m 12,9 km/h (3 Bft)
23.06.2013 16:18 16,3 C 17,3 C 84 % 1012,2 hPa 0,0 l/m 2 min 0 min 3,6 UV-I 930 W/m 18,0 km/h (3 Bft)
23.06.2013 16:20 16,7 C 17,9 C 84 % 1012,2 hPa 0,0 l/m 2 min 2 min 2,8 UV-I 916 W/m 12,9 km/h (3 Bft)
23.06.2013 16:22 16,9 C 17,9 C 84 % 1012,2 hPa 0,0 l/m 0 min 0 min 1,9 UV-I 362 W/m 7,7 km/h (2 Bft)
23.06.2013 16:24 17,0 C 17,9 C 83 % 1012,1 hPa 0,0 l/m 0 min 0 min 1,9 UV-I 378 W/m 5,1 km/h (1 Bft)
23.06.2013 16:26 17,1 C 17,9 C 83 % 1012,1 hPa 0,0 l/m 2 min 0 min 2,0 UV-I 452 W/m 10,3 km/h (2 Bft)
23.06.2013 16:28 17,2 C 18,4 C 83 % 1012,2 hPa 0,0 l/m 2 min 0 min 3,6 UV-I 452 W/m 15,4 km/h (3 Bft)
23.06.2013 16:30 17,3 C 19,0 C 81 % 1012,2 hPa 0,0 l/m 2 min 0 min 2,7 UV-I 452 W/m 28,3 km/h (4 Bft)
23.06.2013 16:32 17,4 C 19,0 C 80 % 1012,1 hPa 0,0 l/m 2 min 0 min 3,0 UV-I 452 W/m 15,4 km/h (3 Bft)
23.06.2013 16:34 17,6 C 18,4 C 79 % 1012,1 hPa 0,0 l/m 0 min 0 min 1,6 UV-I 339 W/m 23,2 km/h (4 Bft)
23.06.2013 16:36 17,4 C 17,9 C 79 % 1012,1 hPa 0,0 l/m 0 min 0 min 1,3 UV-I 285 W/m 25,7 km/h (4 Bft)
23.06.2013 16:38 17,3 C 17,9 C 79 % 1012,0 hPa 0,0 l/m 0 min 0 min 1,2 UV-I 248 W/m 12,9 km/h (3 Bft)
23.06.2013 16:40 17,2 C 17,9 C 78 % 1012,0 hPa 0,0 l/m 0 min 0 min 1,0 UV-I 253 W/m 12,9 km/h (3 Bft)
23.06.2013 16:42 17,2 C 17,9 C 79 % 1012,0 hPa 0,0 l/m 0 min 0 min 1,0 UV-I 267 W/m 7,7 km/h (2 Bft)
23.06.2013 16:44 17,2 C 17,3 C 79 % 1012,0 hPa 0,0 l/m 0 min 0 min 0,8 UV-I 227 W/m 12,9 km/h (3 Bft)
23.06.2013 16:46 17,1 C 17,3 C 79 % 1012,1 hPa 0,0 l/m 0 min 0 min 0,5 UV-I 193 W/m 7,7 km/h (2 Bft)
23.06.2013 16:48 17,1 C 16,8 C 79 % 1012,1 hPa 0,0 l/m 0 min 0 min 0,0 UV-I 148 W/m 18,0 km/h (3 Bft)
23.06.2013 16:50 17,0 C 16,2 C 80 % 1012,1 hPa 0,0 l/m 0 min 2 min 0,0 UV-I 127 W/m 18,0 km/h (3 Bft)
23.06.2013 16:52 16,9 C 15,1 C 80 % 1012,1 hPa 0,0 l/m 0 min 2 min 0,0 UV-I 141 W/m 15,4 km/h (3 Bft)
23.06.2013 16:54 16,7 C 15,1 C 82 % 1012,0 hPa 0,0 l/m 0 min 2 min 0,0 UV-I 188 W/m 15,4 km/h (3 Bft)
23.06.2013 16:56 16,5 C 15,1 C 83 % 1012,0 hPa 0,0 l/m 0 min 2 min 0,7 UV-I 267 W/m 7,7 km/h (2 Bft)
23.06.2013 16:58 16,4 C 15,1 C 84 % 1012,1 hPa 0,0 l/m 0 min 2 min 0,7 UV-I 255 W/m 12,9 km/h (3 Bft)
23.06.2013 17:00 16,4 C 15,7 C 84 % 1012,1 hPa 0,0 l/m 0 min 0 min 0,8 UV-I 297 W/m 7,7 km/h (2 Bft)
23.06.2013 17:02 16,5 C 16,2 C 84 % 1012,1 hPa 0,0 l/m 2 min 0 min 1,3 UV-I 408 W/m 10,3 km/h (2 Bft)
23.06.2013 17:06 16,8 C 16,8 C 84 % 1012,1 hPa 0,0 l/m 0 min 0 min 1,0 UV-I 302 W/m 15,4 km/h (3 Bft)
23.06.2013 17:08 17,0 C 17,3 C 83 % 1012,1 hPa 0,0 l/m 0 min 0 min 0,8 UV-I 276 W/m 10,3 km/h (2 Bft)
23.06.2013 17:10 17,1 C 17,3 C 82 % 1012,1 hPa 0,0 l/m 2 min 0 min 1,3 UV-I 482 W/m 10,3 km/h (2 Bft)
23.06.2013 17:12 17,2 C 17,3 C 80 % 1012,2 hPa 0,0 l/m 0 min 0 min 0,6 UV-I 185 W/m 20,6 km/h (4 Bft)
23.06.2013 17:14 17,1 C 16,8 C 79 % 1012,2 hPa 0,0 l/m 0 min 0 min 0,5 UV-I 200 W/m 20,6 km/h (4 Bft)
23.06.2013 17:16 17,1 C 16,8 C 78 % 1012,1 hPa 0,0 l/m 0 min 0 min 0,0 UV-I 167 W/m 15,4 km/h (3 Bft)
23.06.2013 17:18 17,1 C 16,8 C 79 % 1012,1 hPa 0,0 l/m 0 min 0 min 0,0 UV-I 172 W/m 5,1 km/h (1 Bft)
23.06.2013 17:20 17,0 C 16,8 C 79 % 1012,1 hPa 0,0 l/m 0 min 0 min 0,0 UV-I 204 W/m 15,4 km/h (3 Bft)
23.06.2013 17:22 17,0 C 16,8 C 79 % 1012,1 hPa 0,0 l/m 0 min 2 min 0,5 UV-I 225 W/m 7,7 km/h (2 Bft)
23.06.2013 17:24 17,0 C 16,8 C 78 % 1012,1 hPa 0,0 l/m 0 min 0 min 0,6 UV-I 237 W/m 30,9 km/h (5 Bft)
23.06.2013 17:26 16,9 C 16,8 C 78 % 1012,1 hPa 0,0 l/m 0 min 0 min 1,7 UV-I 330 W/m 18,0 km/h (3 Bft)
23.06.2013 17:28 17,1 C 17,3 C 78 % 1012,2 hPa 0,0 l/m 0 min 0 min 1,2 UV-I 330 W/m 18,0 km/h (3 Bft)
23.06.2013 17:30 17,3 C 17,3 C 77 % 1012,2 hPa 0,0 l/m 2 min 0 min 2,1 UV-I 661 W/m 10,3 km/h (2 Bft)
23.06.2013 17:32 17,5 C 17,3 C 76 % 1012,2 hPa 0,0 l/m 2 min 0 min 2,0 UV-I 619 W/m 38,6 km/h (5 Bft)
23.06.2013 17:34 17,6 C 17,3 C 75 % 1012,1 hPa 0,0 l/m 2 min 0 min 1,9 UV-I 636 W/m 20,6 km/h (4 Bft)
23.06.2013 17:36 17,7 C 17,3 C 75 % 1012,2 hPa 0,0 l/m 2 min 0 min 1,9 UV-I 626 W/m 15,4 km/h (3 Bft)
23.06.2013 17:38 17,8 C 17,3 C 75 % 1012,2 hPa 0,0 l/m 2 min 0 min 1,9 UV-I 675 W/m 10,3 km/h (2 Bft)
23.06.2013 17:40 17,9 C 17,3 C 76 % 1012,2 hPa 0,0 l/m 2 min 0 min 1,8 UV-I 659 W/m 18,0 km/h (3 Bft)
23.06.2013 17:42 18,1 C 17,9 C 77 % 1012,1 hPa 0,0 l/m 2 min 0 min 1,9 UV-I 570 W/m 18,0 km/h (3 Bft)
23.06.2013 17:44 18,1 C 17,9 C 76 % 1012,2 hPa 0,0 l/m 2 min 0 min 1,1 UV-I 519 W/m 12,9 km/h (3 Bft)
23.06.2013 17:46 17,9 C 17,3 C 76 % 1012,2 hPa 0,0 l/m 0 min 0 min 0,7 UV-I 211 W/m 28,3 km/h (4 Bft)
23.06.2013 17:48 17,7 C 17,3 C 76 % 1012,1 hPa 0,0 l/m 0 min 0 min 0,7 UV-I 262 W/m 23,2 km/h (4 Bft)
23.06.2013 17:50 17,4 C 17,3 C 77 % 1012,1 hPa 0,0 l/m 2 min 0 min 1,1 UV-I 327 W/m 20,6 km/h (4 Bft)
23.06.2013 17:52 17,4 C 17,9 C 78 % 1012,2 hPa 0,0 l/m 2 min 0 min 1,4 UV-I 327 W/m 12,9 km/h (3 Bft)
23.06.2013 17:54 17,4 C 17,9 C 78 % 1012,2 hPa 0,0 l/m 2 min 0 min 1,7 UV-I 541 W/m 25,7 km/h (4 Bft)
23.06.2013 17:56 17,5 C 17,9 C 78 % 1012,1 hPa 0,0 l/m 2 min 0 min 1,3 UV-I 561 W/m 25,7 km/h (4 Bft)
23.06.2013 17:58 17,5 C 17,9 C 77 % 1012,2 hPa 0,0 l/m 2 min 0 min 1,3 UV-I 561 W/m 20,6 km/h (4 Bft)
23.06.2013 18:00 17,6 C 17,9 C 78 % 1012,1 hPa 0,0 l/m 2 min 0 min 1,0 UV-I 345 W/m 10,3 km/h (2 Bft)
23.06.2013 18:02 17,7 C 17,9 C 79 % 1012,2 hPa 0,0 l/m 2 min 0 min 0,8 UV-I 332 W/m 0,0 km/h (0 Bft)
23.06.2013 18:05 17,7 C 17,9 C 78 % 1012,1 hPa 0,0 l/m 0 min 0 min 0,6 UV-I 227 W/m 12,9 km/h (3 Bft)
23.06.2013 18:06 17,7 C 17,9 C 78 % 1012,1 hPa 0,0 l/m 0 min 0 min 0,7 UV-I 227 W/m 0,0 km/h (0 Bft)
23.06.2013 18:08 17,7 C 17,3 C 78 % 1012,4 hPa 0,0 l/m 0 min 0 min 1,1 UV-I 248 W/m 23,2 km/h (4 Bft)
23.06.2013 18:10 17,6 C 17,3 C 78 % 1012,2 hPa 0,0 l/m 2 min 0 min 0,8 UV-I 550 W/m 18,0 km/h (3 Bft)
23.06.2013 18:12 17,5 C 17,3 C 78 % 1012,2 hPa 0,0 l/m 0 min 0 min 0,7 UV-I 162 W/m 30,9 km/h (5 Bft)
23.06.2013 18:14 17,4 C 16,8 C 78 % 1012,2 hPa 0,0 l/m 0 min 0 min 0,7 UV-I 162 W/m 18,0 km/h (3 Bft)
23.06.2013 18:16 17,4 C 16,8 C 77 % 1012,2 hPa 0,0 l/m 2 min 0 min 0,6 UV-I 475 W/m 15,4 km/h (3 Bft)
23.06.2013 18:18 17,4 C 16,8 C 77 % 1012,2 hPa 0,0 l/m 2 min 0 min 0,9 UV-I 475 W/m 23,2 km/h (4 Bft)
23.06.2013 18:20 17,4 C 16,8 C 76 % 1012,1 hPa 0,0 l/m 0 min 0 min 0,5 UV-I 214 W/m 18,0 km/h (3 Bft)
23.06.2013 18:22 17,4 C 16,8 C 76 % 1012,2 hPa 0,0 l/m 0 min 0 min 0,0 UV-I 214 W/m 12,9 km/h (3 Bft)
23.06.2013 18:24 17,5 C 16,8 C 76 % 1012,1 hPa 0,0 l/m 2 min 0 min 0,0 UV-I 468 W/m 10,3 km/h (2 Bft)
23.06.2013 18:26 17,5 C 16,8 C 76 % 1012,0 hPa 0,0 l/m 0 min 0 min 0,0 UV-I 144 W/m 28,3 km/h (4 Bft)
23.06.2013 18:28 17,4 C 16,8 C 75 % 1012,2 hPa 0,0 l/m 0 min 0 min 0,0 UV-I 128 W/m 18,0 km/h (3 Bft)
23.06.2013 18:30 17,3 C 16,8 C 76 % 1012,1 hPa 0,0 l/m 0 min 0 min 0,0 UV-I 134 W/m 25,7 km/h (4 Bft)
23.06.2013 18:32 17,3 C 16,2 C 76 % 1012,2 hPa 0,0 l/m 0 min 0 min 0,0 UV-I 128 W/m 23,2 km/h (4 Bft)
23.06.2013 18:34 17,2 C 16,2 C 76 % 1012,1 hPa 0,0 l/m 0 min 0 min 0,0 UV-I 155 W/m 12,9 km/h (3 Bft)
23.06.2013 18:36 17,2 C 16,8 C 76 % 1012,1 hPa 0,0 l/m 0 min 0 min 0,0 UV-I 162 W/m 20,6 km/h (4 Bft)
23.06.2013 18:38 17,2 C 16,8 C 77 % 1012,1 hPa 0,0 l/m 0 min 0 min 0,0 UV-I 142 W/m 12,9 km/h (3 Bft)
23.06.2013 18:40 17,2 C 16,8 C 77 % 1012,1 hPa 0,0 l/m 0 min 0 min 0,0 UV-I 128 W/m 15,4 km/h (3 Bft)
23.06.2013 18:42 17,2 C 16,8 C 76 % 1012,2 hPa 0,0 l/m 0 min 0 min 0,0 UV-I 130 W/m 12,9 km/h (3 Bft)
23.06.2013 18:44 17,1 C 16,8 C 77 % 1012,0 hPa 0,0 l/m 0 min 0 min 0,0 UV-I 160 W/m 5,1 km/h (1 Bft)
23.06.2013 18:46 17,2 C 16,8 C 77 % 1012,1 hPa 0,0 l/m 0 min 0 min 0,0 UV-I 156 W/m 7,7 km/h (2 Bft)
23.06.2013 18:48 17,2 C 16,8 C 77 % 1012,1 hPa 0,0 l/m 0 min 0 min 0,0 UV-I 220 W/m 20,6 km/h (4 Bft)
23.06.2013 18:50 17,2 C 16,8 C 77 % 1012,1 hPa 0,0 l/m 0 min 0 min 0,0 UV-I 172 W/m 18,0 km/h (3 Bft)
23.06.2013 18:52 17,2 C 16,8 C 77 % 1012,0 hPa 0,0 l/m 0 min 0 min 0,0 UV-I 197 W/m 15,4 km/h (3 Bft)
23.06.2013 18:54 17,4 C 17,3 C 78 % 1012,0 hPa 0,0 l/m 0 min 0 min 0,0 UV-I 149 W/m 2,6 km/h (1 Bft)
23.06.2013 18:56 17,5 C 17,3 C 77 % 1012,0 hPa 0,0 l/m 0 min 0 min 0,0 UV-I 125 W/m 10,3 km/h (2 Bft)
23.06.2013 18:58 17,7 C 17,3 C 77 % 1012,1 hPa 0,0 l/m 0 min 0 min 0,0 UV-I 121 W/m 18,0 km/h (3 Bft)
23.06.2013 19:00 17,7 C 16,8 C 75 % 1012,1 hPa 0,0 l/m 0 min 0 min 0,0 UV-I 125 W/m 18,0 km/h (3 Bft)
23.06.2013 19:02 17,7 C 16,8 C 75 % 1012,1 hPa 0,0 l/m 0 min 0 min 0,0 UV-I 134 W/m 15,4 km/h (3 Bft)
23.06.2013 19:05 17,6 C 16,8 C 75 % 1012,1 hPa 0,0 l/m 0 min 0 min 0,0 UV-I 100 W/m 20,6 km/h (4 Bft)
23.06.2013 19:06 17,5 C 16,8 C 75 % 1012,1 hPa 0,0 l/m 0 min 0 min 0,0 UV-I 149 W/m 10,3 km/h (2 Bft)
23.06.2013 19:08 17,5 C 16,8 C 75 % 1012,2 hPa 0,0 l/m 0 min 0 min 0,0 UV-I 155 W/m 12,9 km/h (3 Bft)
23.06.2013 19:10 17,4 C 16,2 C 75 % 1012,0 hPa 0,0 l/m 0 min 0 min 0,0 UV-I 56 W/m 12,9 km/h (3 Bft)
23.06.2013 19:12 17,3 C 16,2 C 76 % 1012,1 hPa 0,0 l/m 0 min 0 min 0,0 UV-I 56 W/m 12,9 km/h (3 Bft)
23.06.2013 19:14 17,3 C 16,2 C 76 % 1012,2 hPa 0,0 l/m 0 min 0 min 0,0 UV-I 63 W/m 7,7 km/h (2 Bft)
23.06.2013 19:16 17,2 C 15,7 C 76 % 1012,1 hPa 0,0 l/m 0 min 0 min 0,0 UV-I 77 W/m 7,7 km/h (2 Bft)
23.06.2013 19:18 17,1 C 15,7 C 77 % 1012,1 hPa 0,0 l/m 0 min 0 min 0,0 UV-I 93 W/m 18,0 km/h (3 Bft)
23.06.2013 19:20 16,9 C 16,2 C 77 % 1012,1 hPa 0,0 l/m 0 min 0 min 0,0 UV-I 116 W/m 15,4 km/h (3 Bft)
23.06.2013 19:22 16,9 C 16,2 C 78 % 1012,2 hPa 0,0 l/m 0 min 0 min 0,0 UV-I 172 W/m 18,0 km/h (3 Bft)
23.06.2013 19:24 16,9 C 16,2 C 78 % 1012,1 hPa 0,0 l/m 0 min 0 min 0,0 UV-I 165 W/m 10,3 km/h (2 Bft)
23.06.2013 19:26 17,0 C 16,8 C 78 % 1012,0 hPa 0,0 l/m 0 min 0 min 0,0 UV-I 127 W/m 18,0 km/h (3 Bft)
23.06.2013 19:28 17,1 C 16,8 C 78 % 1012,1 hPa 0,0 l/m 0 min 0 min 0,0 UV-I 91 W/m 15,4 km/h (3 Bft)
23.06.2013 19:30 17,2 C 16,8 C 77 % 1012,0 hPa 0,0 l/m 0 min 0 min 0,0 UV-I 76 W/m 10,3 km/h (2 Bft)
23.06.2013 19:32 17,2 C 16,2 C 77 % 1012,0 hPa 0,0 l/m 0 min 0 min 0,0 UV-I 83 W/m 18,0 km/h (3 Bft)
23.06.2013 19:34 17,2 C 16,2 C 77 % 1012,0 hPa 0,0 l/m 0 min 0 min 0,0 UV-I 95 W/m 18,0 km/h (3 Bft)
23.06.2013 19:36 17,3 C 16,2 C 77 % 1012,0 hPa 0,0 l/m 0 min 0 min 0,0 UV-I 83 W/m 7,7 km/h (2 Bft)
23.06.2013 19:38 17,3 C 16,8 C 77 % 1012,1 hPa 0,0 l/m 0 min 0 min 0,0 UV-I 107 W/m 7,7 km/h (2 Bft)
23.06.2013 19:40 17,3 C 16,8 C 77 % 1012,0 hPa 0,0 l/m 0 min 0 min 0,0 UV-I 120 W/m 12,9 km/h (3 Bft)
23.06.2013 19:42 17,3 C 16,8 C 77 % 1012,0 hPa 0,0 l/m 0 min 0 min 0,0 UV-I 132 W/m 23,2 km/h (4 Bft)
23.06.2013 19:44 17,4 C 16,8 C 76 % 1012,1 hPa 0,0 l/m 0 min 0 min 0,0 UV-I 81 W/m 15,4 km/h (3 Bft)
23.06.2013 19:46 17,3 C 16,2 C 76 % 1012,1 hPa 0,0 l/m 0 min 0 min 0,0 UV-I 79 W/m 7,7 km/h (2 Bft)
23.06.2013 19:48 17,3 C 16,2 C 76 % 1012,1 hPa 0,0 l/m 0 min 0 min 0,0 UV-I 65 W/m 12,9 km/h (3 Bft)
23.06.2013 19:50 17,3 C 16,2 C 76 % 1012,1 hPa 0,0 l/m 0 min 0 min 0,0 UV-I 70 W/m 10,3 km/h (2 Bft)
23.06.2013 19:52 17,2 C 16,2 C 76 % 1012,1 hPa 0,0 l/m 0 min 0 min 0,0 UV-I 77 W/m 12,9 km/h (3 Bft)
23.06.2013 19:54 17,2 C 16,2 C 76 % 1012,1 hPa 0,0 l/m 0 min 0 min 0,0 UV-I 60 W/m 25,7 km/h (4 Bft)
23.06.2013 19:56 17,3 C 16,2 C 76 % 1012,1 hPa 0,0 l/m 0 min 0 min 0,0 UV-I 49 W/m 12,9 km/h (3 Bft)
23.06.2013 19:58 17,3 C 16,2 C 76 % 1012,1 hPa 0,0 l/m 0 min 0 min 0,0 UV-I 47 W/m 10,3 km/h (2 Bft)
23.06.2013 20:00 17,2 C 16,2 C 76 % 1012,1 hPa 0,0 l/m 0 min 0 min 0,0 UV-I 51 W/m 15,4 km/h (3 Bft)
23.06.2013 20:02 17,2 C 16,2 C 76 % 1012,1 hPa 0,0 l/m 0 min 0 min 0,0 UV-I 70 W/m 15,4 km/h (3 Bft)
23.06.2013 20:06 17,2 C 16,2 C 76 % 1012,2 hPa 0,0 l/m 0 min 0 min 0,0 UV-I 72 W/m 20,6 km/h (4 Bft)
23.06.2013 20:08 17,2 C 16,2 C 76 % 1012,3 hPa 0,0 l/m 0 min 0 min 0,0 UV-I 42 W/m 15,4 km/h (3 Bft)
23.06.2013 20:10 17,2 C 15,7 C 76 % 1012,2 hPa 0,0 l/m 0 min 0 min 0,0 UV-I 53 W/m 20,6 km/h (4 Bft)
23.06.2013 20:12 17,1 C 15,7 C 75 % 1012,1 hPa 0,0 l/m 0 min 0 min 0,0 UV-I 69 W/m 15,4 km/h (3 Bft)
23.06.2013 20:14 17,0 C 15,7 C 76 % 1012,2 hPa 0,0 l/m 0 min 0 min 0,0 UV-I 77 W/m 10,3 km/h (2 Bft)
23.06.2013 20:16 16,9 C 15,7 C 76 % 1012,2 hPa 0,0 l/m 0 min 0 min 0,0 UV-I 76 W/m 10,3 km/h (2 Bft)
23.06.2013 20:18 16,9 C 16,2 C 76 % 1012,2 hPa 0,0 l/m 0 min 0 min 0,0 UV-I 79 W/m 12,9 km/h (3 Bft)
23.06.2013 20:20 16,9 C 16,2 C 77 % 1012,2 hPa 0,0 l/m 0 min 0 min 0,0 UV-I 79 W/m 7,7 km/h (2 Bft)
23.06.2013 20:22 16,9 C 16,2 C 77 % 1012,1 hPa 0,0 l/m 0 min 0 min 0,0 UV-I 81 W/m 12,9 km/h (3 Bft)
23.06.2013 20:24 16,9 C 16,2 C 76 % 1012,2 hPa 0,0 l/m 0 min 0 min 0,0 UV-I 79 W/m 12,9 km/h (3 Bft)
23.06.2013 20:26 17,0 C 16,2 C 76 % 1012,2 hPa 0,0 l/m 0 min 0 min 0,0 UV-I 69 W/m 10,3 km/h (2 Bft)
23.06.2013 20:28 17,0 C 16,2 C 76 % 1012,1 hPa 0,0 l/m 0 min 0 min 0,0 UV-I 58 W/m 15,4 km/h (3 Bft)
23.06.2013 20:30 17,0 C 16,2 C 76 % 1012,1 hPa 0,0 l/m 0 min 0 min 0,0 UV-I 49 W/m 2,6 km/h (1 Bft)
23.06.2013 20:32 17,0 C 15,7 C 76 % 1012,2 hPa 0,0 l/m 0 min 0 min 0,0 UV-I 33 W/m 10,3 km/h (2 Bft)
23.06.2013 20:34 17,0 C 15,7 C 76 % 1012,2 hPa 0,0 l/m 0 min 0 min 0,0 UV-I 30 W/m 12,9 km/h (3 Bft)
23.06.2013 20:36 17,0 C 15,7 C 76 % 1012,3 hPa 0,0 l/m 0 min 0 min 0,0 UV-I 28 W/m 10,3 km/h (2 Bft)
23.06.2013 20:38 16,9 C 15,7 C 76 % 1012,3 hPa 0,0 l/m 0 min 0 min 0,0 UV-I 26 W/m 12,9 km/h (3 Bft)
23.06.2013 20:40 16,9 C 15,7 C 76 % 1012,2 hPa 0,0 l/m 0 min 0 min 0,0 UV-I 28 W/m 23,2 km/h (4 Bft)
23.06.2013 20:42 16,9 C 15,7 C 76 % 1012,3 hPa 0,0 l/m 0 min 0 min 0,0 UV-I 28 W/m 10,3 km/h (2 Bft)
23.06.2013 20:44 16,9 C 15,7 C 76 % 1012,3 hPa 0,0 l/m 0 min 0 min 0,0 UV-I 30 W/m 12,9 km/h (3 Bft)
23.06.2013 20:46 16,9 C 15,7 C 76 % 1012,3 hPa 0,0 l/m 0 min 0 min 0,0 UV-I 37 W/m 15,4 km/h (3 Bft)
23.06.2013 20:48 16,9 C 15,7 C 76 % 1012,4 hPa 0,0 l/m 0 min 0 min 0,0 UV-I 28 W/m 7,7 km/h (2 Bft)
23.06.2013 20:50 16,9 C 15,7 C 76 % 1012,3 hPa 0,0 l/m 0 min 0 min 0,0 UV-I 28 W/m 12,9 km/h (3 Bft)
23.06.2013 20:52 16,8 C 15,7 C 76 % 1012,5 hPa 0,0 l/m 0 min 0 min 0,0 UV-I 28 W/m 23,2 km/h (4 Bft)
23.06.2013 20:54 16,8 C 15,7 C 76 % 1012,4 hPa 0,0 l/m 0 min 0 min 0,0 UV-I 32 W/m 10,3 km/h (2 Bft)
23.06.2013 20:56 16,8 C 15,1 C 77 % 1012,4 hPa 0,0 l/m 0 min 0 min 0,0 UV-I 23 W/m 10,3 km/h (2 Bft)
23.06.2013 20:58 16,8 C 15,1 C 77 % 1012,4 hPa 0,0 l/m 0 min 0 min 0,0 UV-I 19 W/m 7,7 km/h (2 Bft)
23.06.2013 21:00 16,8 C 15,1 C 77 % 1012,5 hPa 0,0 l/m 0 min 0 min 0,0 UV-I 16 W/m 12,9 km/h (3 Bft)
23.06.2013 21:02 16,7 C 15,1 C 77 % 1012,5 hPa 0,0 l/m 0 min 0 min 0,0 UV-I 14 W/m 10,3 km/h (2 Bft)
23.06.2013 21:06 16,6 C 15,1 C 78 % 1012,6 hPa 0,0 l/m 0 min 0 min 0,0 UV-I 16 W/m 18,0 km/h (3 Bft)
23.06.2013 21:08 16,6 C 15,1 C 78 % 1012,8 hPa 0,0 l/m 0 min 0 min 0,0 UV-I 18 W/m 23,2 km/h (4 Bft)
23.06.2013 21:10 16,4 C 14,6 C 78 % 1012,8 hPa 0,0 l/m 0 min 0 min 0,0 UV-I 21 W/m 18,0 km/h (3 Bft)
23.06.2013 21:12 16,4 C 14,6 C 78 % 1012,7 hPa 0,0 l/m 0 min 0 min 0,0 UV-I 21 W/m 30,9 km/h (5 Bft)
23.06.2013 21:14 16,3 C 14,6 C 78 % 1012,8 hPa 0,0 l/m 0 min 0 min 0,0 UV-I 18 W/m 18,0 km/h (3 Bft)
23.06.2013 21:16 16,3 C 14,6 C 78 % 1012,7 hPa 0,0 l/m 0 min 0 min 0,0 UV-I 14 W/m 18,0 km/h (3 Bft)
23.06.2013 21:18 16,2 C 14,6 C 78 % 1012,8 hPa 0,0 l/m 0 min 0 min 0,0 UV-I 14 W/m 18,0 km/h (3 Bft)
23.06.2013 21:20 16,2 C 14,6 C 79 % 1012,7 hPa 0,0 l/m 0 min 0 min 0,0 UV-I 12 W/m 10,3 km/h (2 Bft)
23.06.2013 21:22 16,1 C 14,6 C 79 % 1012,7 hPa 0,0 l/m 0 min 0 min 0,0 UV-I 12 W/m 18,0 km/h (3 Bft)
23.06.2013 21:24 16,0 C 14,0 C 79 % 1012,7 hPa 0,0 l/m 0 min 0 min 0,0 UV-I 12 W/m 23,2 km/h (4 Bft)
23.06.2013 21:26 15,9 C 14,0 C 79 % 1012,7 hPa 0,0 l/m 0 min 0 min 0,0 UV-I 11 W/m 20,6 km/h (4 Bft)
23.06.2013 21:28 15,9 C 14,0 C 80 % 1012,7 hPa 0,0 l/m 0 min 0 min 0,0 UV-I 11 W/m 10,3 km/h (2 Bft)
23.06.2013 21:30 15,8 C 14,0 C 80 % 1012,7 hPa 0,0 l/m 0 min 0 min 0,0 UV-I 9 W/m 20,6 km/h (4 Bft)
23.06.2013 21:32 15,8 C 14,0 C 81 % 1012,8 hPa 0,0 l/m 0 min 0 min 0,0 UV-I 9 W/m 7,7 km/h (2 Bft)
23.06.2013 21:34 15,7 C 14,0 C 81 % 1012,8 hPa 0,0 l/m 0 min 0 min 0,0 UV-I 9 W/m 15,4 km/h (3 Bft)
23.06.2013 21:36 15,7 C 14,0 C 81 % 1012,8 hPa 0,0 l/m 0 min 0 min 0,0 UV-I 9 W/m 7,7 km/h (2 Bft)
23.06.2013 21:38 15,6 C 14,0 C 82 % 1012,8 hPa 0,0 l/m 0 min 0 min 0,0 UV-I 7 W/m 7,7 km/h (2 Bft)
23.06.2013 21:40 15,5 C 14,0 C 82 % 1012,9 hPa 0,0 l/m 0 min 0 min 0,0 UV-I 7 W/m 12,9 km/h (3 Bft)
23.06.2013 21:42 15,4 C 14,0 C 83 % 1012,9 hPa 0,0 l/m 0 min 0 min 0,0 UV-I 7 W/m 12,9 km/h (3 Bft)
23.06.2013 21:44 15,4 C 13,4 C 83 % 1012,9 hPa 0,0 l/m 0 min 0 min 0,0 UV-I 7 W/m 12,9 km/h (3 Bft)
23.06.2013 21:46 15,3 C 13,4 C 83 % 1013,0 hPa 0,0 l/m 0 min 0 min 0,0 UV-I 5 W/m 15,4 km/h (3 Bft)
23.06.2013 21:48 15,3 C 13,4 C 83 % 1013,0 hPa 0,0 l/m 0 min 0 min 0,0 UV-I 5 W/m 15,4 km/h (3 Bft)
23.06.2013 21:50 15,3 C 13,4 C 84 % 1013,0 hPa 0,0 l/m 0 min 0 min 0,0 UV-I 5 W/m 7,7 km/h (2 Bft)
23.06.2013 21:52 15,2 C 13,4 C 84 % 1013,0 hPa 0,0 l/m 0 min 0 min 0,0 UV-I 5 W/m 12,9 km/h (3 Bft)
23.06.2013 21:54 15,2 C 13,4 C 84 % 1013,2 hPa 0,0 l/m 0 min 0 min 0,0 UV-I 0 W/m 5,1 km/h (1 Bft)
23.06.2013 21:56 15,1 C 13,4 C 84 % 1013,2 hPa 0,0 l/m 0 min 0 min 0,0 UV-I 0 W/m 2,6 km/h (1 Bft)
23.06.2013 21:58 15,1 C 13,4 C 85 % 1013,2 hPa 0,0 l/m 0 min 0 min 0,0 UV-I 0 W/m 12,9 km/h (3 Bft)
23.06.2013 22:00 15,1 C 13,4 C 85 % 1013,3 hPa 0,0 l/m 0 min 0 min 0,0 UV-I 0 W/m 0,0 km/h (0 Bft)
23.06.2013 22:02 15,0 C 13,4 C 85 % 1013,3 hPa 0,0 l/m 0 min 0 min 0,0 UV-I 0 W/m 0,0 km/h (0 Bft)
23.06.2013 22:06 14,9 C 13,4 C 85 % 1013,3 hPa 0,0 l/m 0 min 0 min 0,0 UV-I 0 W/m 7,7 km/h (2 Bft)
23.06.2013 22:08 14,9 C 13,4 C 85 % 1013,4 hPa 0,0 l/m 0 min 0 min 0,0 UV-I 0 W/m 7,7 km/h (2 Bft)
23.06.2013 22:10 14,9 C 13,4 C 86 % 1013,4 hPa 0,0 l/m 0 min 0 min 0,0 UV-I 0 W/m 10,3 km/h (2 Bft)
23.06.2013 22:12 14,8 C 13,4 C 86 % 1013,4 hPa 0,0 l/m 0 min 0 min 0,0 UV-I 0 W/m 2,6 km/h (1 Bft)
23.06.2013 22:14 14,8 C 13,4 C 86 % 1013,5 hPa 0,0 l/m 0 min 0 min 0,0 UV-I 0 W/m 7,7 km/h (2 Bft)
23.06.2013 22:16 14,8 C 13,4 C 86 % 1013,5 hPa 0,0 l/m 0 min 0 min 0,0 UV-I 0 W/m 18,0 km/h (3 Bft)
23.06.2013 22:18 14,8 C 13,4 C 86 % 1013,5 hPa 0,0 l/m 0 min 0 min 0,0 UV-I 0 W/m 7,7 km/h (2 Bft)
23.06.2013 22:20 14,7 C 13,4 C 86 % 1013,5 hPa 0,0 l/m 0 min 0 min 0,0 UV-I 0 W/m 10,3 km/h (2 Bft)
23.06.2013 22:22 14,7 C 13,4 C 87 % 1013,5 hPa 0,0 l/m 0 min 0 min 0,0 UV-I 0 W/m 10,3 km/h (2 Bft)
23.06.2013 22:24 14,7 C 13,4 C 87 % 1013,5 hPa 0,0 l/m 0 min 0 min 0,0 UV-I 0 W/m 5,1 km/h (1 Bft)
23.06.2013 22:26 14,7 C 13,4 C 87 % 1013,5 hPa 0,0 l/m 0 min 0 min 0,0 UV-I 0 W/m 2,6 km/h (1 Bft)
23.06.2013 22:28 14,6 C 13,4 C 87 % 1013,5 hPa 0,0 l/m 0 min 0 min 0,0 UV-I 0 W/m 0,0 km/h (0 Bft)
23.06.2013 22:30 14,6 C 13,4 C 87 % 1013,5 hPa 0,0 l/m 0 min 0 min 0,0 UV-I 0 W/m 10,3 km/h (2 Bft)
23.06.2013 22:32 14,6 C 13,4 C 87 % 1013,6 hPa 0,0 l/m 0 min 0 min 0,0 UV-I 0 W/m 7,7 km/h (2 Bft)
23.06.2013 22:34 14,6 C 13,4 C 87 % 1013,6 hPa 0,0 l/m 0 min 0 min 0,0 UV-I 0 W/m 10,3 km/h (2 Bft)
23.06.2013 22:36 14,6 C 13,4 C 87 % 1013,6 hPa 0,0 l/m 0 min 0 min 0,0 UV-I 0 W/m 7,7 km/h (2 Bft)
23.06.2013 22:38 14,5 C 13,4 C 87 % 1013,6 hPa 0,0 l/m 0 min 0 min 0,0 UV-I 0 W/m 5,1 km/h (1 Bft)
23.06.2013 22:40 14,5 C 13,4 C 87 % 1013,6 hPa 0,0 l/m 0 min 0 min 0,0 UV-I 0 W/m 7,7 km/h (2 Bft)
23.06.2013 22:42 14,5 C 13,4 C 87 % 1013,6 hPa 0,0 l/m 0 min 0 min 0,0 UV-I 0 W/m 15,4 km/h (3 Bft)
23.06.2013 22:44 14,5 C 13,4 C 88 % 1013,6 hPa 0,0 l/m 0 min 0 min 0,0 UV-I 0 W/m 15,4 km/h (3 Bft)
23.06.2013 22:46 14,4 C 13,4 C 88 % 1013,6 hPa 0,0 l/m 0 min 0 min 0,0 UV-I 0 W/m 7,7 km/h (2 Bft)
23.06.2013 22:48 14,4 C 12,9 C 88 % 1013,6 hPa 0,0 l/m 0 min 0 min 0,0 UV-I 0 W/m 2,6 km/h (1 Bft)
23.06.2013 22:50 14,4 C 12,9 C 88 % 1013,6 hPa 0,0 l/m 0 min 0 min 0,0 UV-I 0 W/m 18,0 km/h (3 Bft)
23.06.2013 22:52 14,4 C 12,9 C 88 % 1013,6 hPa 0,0 l/m 0 min 0 min 0,0 UV-I 0 W/m 5,1 km/h (1 Bft)
23.06.2013 22:54 14,4 C 12,9 C 88 % 1013,6 hPa 0,0 l/m 0 min 0 min 0,0 UV-I 0 W/m 7,7 km/h (2 Bft)
23.06.2013 22:56 14,4 C 12,9 C 88 % 1013,6 hPa 0,0 l/m 0 min 0 min 0,0 UV-I 0 W/m 2,6 km/h (1 Bft)
23.06.2013 22:58 14,4 C 12,9 C 87 % 1013,6 hPa 0,0 l/m 0 min 0 min 0,0 UV-I 0 W/m 5,1 km/h (1 Bft)
23.06.2013 23:00 14,3 C 12,9 C 88 % 1013,6 hPa 0,0 l/m 0 min 0 min 0,0 UV-I 0 W/m 7,7 km/h (2 Bft)
23.06.2013 23:02 14,3 C 12,9 C 88 % 1013,7 hPa 0,0 l/m 0 min 0 min 0,0 UV-I 0 W/m 5,1 km/h (1 Bft)
23.06.2013 23:06 14,3 C 12,9 C 88 % 1013,6 hPa 0,0 l/m 0 min 0 min 0,0 UV-I 0 W/m 7,7 km/h (2 Bft)
23.06.2013 23:08 14,3 C 12,9 C 88 % 1013,7 hPa 0,0 l/m 0 min 0 min 0,0 UV-I 0 W/m 0,0 km/h (0 Bft)
23.06.2013 23:10 14,3 C 12,9 C 88 % 1013,8 hPa 0,0 l/m 0 min 0 min 0,0 UV-I 0 W/m 7,7 km/h (2 Bft)
23.06.2013 23:12 14,3 C 12,9 C 88 % 1013,8 hPa 0,0 l/m 0 min 0 min 0,0 UV-I 0 W/m 7,7 km/h (2 Bft)
23.06.2013 23:14 14,2 C 12,9 C 88 % 1013,8 hPa 0,0 l/m 0 min 0 min 0,0 UV-I 0 W/m 2,6 km/h (1 Bft)
23.06.2013 23:16 14,2 C 12,9 C 88 % 1013,7 hPa 0,0 l/m 0 min 0 min 0,0 UV-I 0 W/m 5,1 km/h (1 Bft)
23.06.2013 23:18 14,2 C 13,4 C 88 % 1013,7 hPa 0,0 l/m 0 min 0 min 0,0 UV-I 0 W/m 12,9 km/h (3 Bft)
23.06.2013 23:20 14,2 C 13,4 C 88 % 1013,7 hPa 0,0 l/m 0 min 0 min 0,0 UV-I 0 W/m 0,0 km/h (0 Bft)
23.06.2013 23:22 14,2 C 12,9 C 88 % 1013,7 hPa 0,0 l/m 0 min 0 min 0,0 UV-I 0 W/m 5,1 km/h (1 Bft)
23.06.2013 23:24 14,2 C 13,4 C 88 % 1013,8 hPa 0,0 l/m 0 min 0 min 0,0 UV-I 0 W/m 2,6 km/h (1 Bft)
23.06.2013 23:26 14,2 C 13,4 C 88 % 1013,9 hPa 0,0 l/m 0 min 0 min 0,0 UV-I 0 W/m 2,6 km/h (1 Bft)
23.06.2013 23:28 14,2 C 13,4 C 88 % 1013,9 hPa 0,0 l/m 0 min 0 min 0,0 UV-I 0 W/m 0,0 km/h (0 Bft)
23.06.2013 23:30 14,2 C 13,4 C 88 % 1013,8 hPa 0,0 l/m 0 min 0 min 0,0 UV-I 0 W/m 0,0 km/h (0 Bft)
23.06.2013 23:32 14,2 C 13,4 C 88 % 1013,9 hPa 0,0 l/m 0 min 0 min 0,0 UV-I 0 W/m 2,6 km/h (1 Bft)
23.06.2013 23:34 14,2 C 13,4 C 88 % 1013,8 hPa 0,0 l/m 0 min 0 min 0,0 UV-I 0 W/m 0,0 km/h (0 Bft)
23.06.2013 23:36 14,2 C 13,4 C 89 % 1013,7 hPa 0,0 l/m 0 min 0 min 0,0 UV-I 0 W/m 0,0 km/h (0 Bft)
23.06.2013 23:38 14,2 C 13,4 C 89 % 1013,7 hPa 0,0 l/m 0 min 0 min 0,0 UV-I 0 W/m 0,0 km/h (0 Bft)
23.06.2013 23:40 14,2 C 13,4 C 89 % 1013,7 hPa 0,0 l/m 0 min 0 min 0,0 UV-I 0 W/m 2,6 km/h (1 Bft)
23.06.2013 23:42 14,2 C 13,4 C 89 % 1013,8 hPa 0,0 l/m 0 min 0 min 0,0 UV-I 0 W/m 7,7 km/h (2 Bft)
23.06.2013 23:44 14,2 C 13,4 C 89 % 1013,7 hPa 0,0 l/m 0 min 0 min 0,0 UV-I 0 W/m 5,1 km/h (1 Bft)
23.06.2013 23:46 14,2 C 13,4 C 89 % 1013,8 hPa 0,0 l/m 0 min 0 min 0,0 UV-I 0 W/m 10,3 km/h (2 Bft)
23.06.2013 23:48 14,2 C 13,4 C 89 % 1013,9 hPa 0,0 l/m 0 min 0 min 0,0 UV-I 0 W/m 2,6 km/h (1 Bft)
23.06.2013 23:50 14,2 C 13,4 C 89 % 1013,8 hPa 0,0 l/m 0 min 0 min 0,0 UV-I 0 W/m 7,7 km/h (2 Bft)
23.06.2013 23:52 14,2 C 13,4 C 88 % 1013,8 hPa 0,0 l/m 0 min 0 min 0,0 UV-I 0 W/m 12,9 km/h (3 Bft)
23.06.2013 23:54 14,2 C 13,4 C 88 % 1013,8 hPa 0,0 l/m 0 min 0 min 0,0 UV-I 0 W/m 10,3 km/h (2 Bft)
23.06.2013 23:56 14,2 C 13,4 C 88 % 1013,9 hPa 0,0 l/m 0 min 0 min 0,0 UV-I 0 W/m 5,1 km/h (1 Bft)
23.06.2013 23:58 14,2 C 13,4 C 88 % 1014,0 hPa 0,0 l/m 0 min 0 min 0,0 UV-I 0 W/m 5,1 km/h (1 Bft)
_ Min-Zeit 04:10 02:18 17:34 04:40 - - - - - 00:06
Minimum _ 12,2 C 11,2 C 75 % 1009,9 hPa - - - - - 0,0 km/h (0 Bft)
_ Max-Zeit 17:42 13:08 04:00 23:58 00:34 08:20 00:30 14:02 15:08 13:50
Maximum _ 18,1 C 21,2 C 96 % 1014,0 hPa 0,2 l/m 2 min 2 min 5,9 UV-I 1093 W/m 51,5 km/h
S (7 Bft)
Durchschnitt _ 15,1 C 14,5 C 85 % 1011,4 hPa #1,0 l/m #3:25 h #3:48 h 1,9 UV-I 243 W/m 13,7 km/h (3 Bft)
© 2013 W. Hausmann